Wetterdaten: Mittwoch, 16.02.2022
Datum Zeit Temp. Aussen Temp. o. S. Temp +5cm Feuchte Auss Luftdruck Regen Sonnenschein Regendauer Solar Windben Empfang
16.02.2022 00:00 7,7 C 6,7 C 3,3 C 94 % 1006,1 hPa 0,0 l/m 0 min 2 min 0 W/m 38,6 km/h (5 Bft) 97,87 %
16.02.2022 00:02 7,7 C 6,7 C 3,3 C 94 % 1006,0 hPa 0,0 l/m 0 min 2 min 0 W/m 32,2 km/h (5 Bft) 92,86 %
16.02.2022 00:04 7,7 C 6,7 C 3,3 C 94 % 1006,0 hPa 0,0 l/m 0 min 2 min 0 W/m 41,8 km/h (6 Bft) 97,83 %
16.02.2022 00:06 7,7 C 6,7 C 3,3 C 94 % 1006,0 hPa 0,0 l/m 0 min 2 min 0 W/m 25,7 km/h (4 Bft) 95,74 %
16.02.2022 00:08 7,7 C 6,7 C 3,3 C 94 % 1006,1 hPa 0,0 l/m 0 min 2 min 0 W/m 38,6 km/h (5 Bft) 95,74 %
16.02.2022 00:10 7,7 C 6,7 C 3,3 C 94 % 1005,9 hPa 0,0 l/m 0 min 2 min 0 W/m 22,5 km/h (4 Bft) 93,62 %
16.02.2022 00:12 7,7 C 6,7 C 3,3 C 94 % 1006,1 hPa 0,0 l/m 0 min 2 min 0 W/m 38,6 km/h (5 Bft) 95,74 %
16.02.2022 00:14 7,7 C 6,7 C 3,3 C 94 % 1006,0 hPa 0,0 l/m 0 min 2 min 0 W/m 29,0 km/h (5 Bft) 93,48 %
16.02.2022 00:16 7,7 C 6,7 C 3,3 C 94 % 1005,9 hPa 0,0 l/m 0 min 2 min 0 W/m 25,7 km/h (4 Bft) 93,62 %
16.02.2022 00:18 7,7 C 6,7 C 3,3 C 94 % 1005,9 hPa 0,2 l/m 0 min 2 min 0 W/m 48,3 km/h (6 Bft) 95,74 %
16.02.2022 00:20 7,8 C 6,7 C 3,3 C 94 % 1005,9 hPa 0,0 l/m 0 min 2 min 0 W/m 48,3 km/h (6 Bft) 95,74 %
16.02.2022 00:22 7,8 C 6,7 C 3,3 C 94 % 1006,0 hPa 0,0 l/m 0 min 2 min 0 W/m 29,0 km/h (5 Bft) 95,74 %
16.02.2022 00:24 7,8 C 6,7 C 3,3 C 94 % 1006,0 hPa 0,0 l/m 0 min 2 min 0 W/m 45,1 km/h (6 Bft) 95,74 %
16.02.2022 00:26 7,8 C 6,7 C 3,3 C 94 % 1006,0 hPa 0,0 l/m 0 min 2 min 0 W/m 29,0 km/h (5 Bft) 95,74 %
16.02.2022 00:28 7,8 C 6,7 C 3,3 C 94 % 1005,9 hPa 0,0 l/m 0 min 2 min 0 W/m 19,3 km/h (3 Bft) 95,65 %
16.02.2022 00:30 7,8 C 6,7 C 3,3 C 94 % 1005,9 hPa 0,0 l/m 0 min 2 min 0 W/m 19,3 km/h (3 Bft) 93,62 %
16.02.2022 00:32 7,8 C 6,7 C 3,3 C 94 % 1005,9 hPa 0,0 l/m 0 min 2 min 0 W/m 25,7 km/h (4 Bft) 94,34 %
16.02.2022 00:34 7,8 C 6,7 C 3,3 C 94 % 1005,9 hPa 0,0 l/m 0 min 2 min 0 W/m 25,7 km/h (4 Bft) 97,87 %
16.02.2022 00:36 7,8 C 6,7 C 3,3 C 94 % 1005,9 hPa 0,0 l/m 0 min 2 min 0 W/m 22,5 km/h (4 Bft) 57,45 %
16.02.2022 00:38 7,8 C 6,7 C 3,3 C 94 % 1006,0 hPa 0,0 l/m 0 min 2 min 0 W/m 35,4 km/h (5 Bft) 92,86 %
16.02.2022 00:40 7,8 C 6,7 C 3,3 C 94 % 1005,8 hPa 0,0 l/m 0 min 2 min 0 W/m 38,6 km/h (5 Bft) 97,22 %
16.02.2022 00:42 7,8 C 6,7 C 3,3 C 94 % 1005,8 hPa 0,0 l/m 0 min 2 min 0 W/m 32,2 km/h (5 Bft) 97,87 %
16.02.2022 00:44 7,8 C 6,7 C 3,3 C 94 % 1005,7 hPa 0,2 l/m 0 min 2 min 0 W/m 35,4 km/h (5 Bft) 97,87 %
16.02.2022 00:46 7,8 C 6,7 C 3,3 C 94 % 1005,7 hPa 0,0 l/m 0 min 2 min 0 W/m 38,6 km/h (5 Bft) 100,00 %
16.02.2022 00:48 7,8 C 6,7 C 3,3 C 94 % 1005,7 hPa 0,0 l/m 0 min 2 min 0 W/m 35,4 km/h (5 Bft) 100,00 %
16.02.2022 00:50 7,8 C 6,7 C 3,9 C 94 % 1005,7 hPa 0,0 l/m 0 min 2 min 0 W/m 32,2 km/h (5 Bft) 100,00 %
16.02.2022 00:52 7,8 C 6,7 C 3,9 C 94 % 1005,7 hPa 0,0 l/m 0 min 2 min 0 W/m 29,0 km/h (5 Bft) 100,00 %
16.02.2022 00:54 7,8 C 6,7 C 3,9 C 94 % 1005,8 hPa 0,0 l/m 0 min 2 min 0 W/m 41,8 km/h (6 Bft) 100,00 %
16.02.2022 00:56 7,8 C 6,7 C 3,9 C 94 % 1005,6 hPa 0,0 l/m 0 min 2 min 0 W/m 25,7 km/h (4 Bft) 100,00 %
16.02.2022 00:58 7,8 C 6,7 C 3,9 C 94 % 1005,7 hPa 0,0 l/m 0 min 2 min 0 W/m 22,5 km/h (4 Bft) 100,00 %
16.02.2022 01:00 7,8 C 6,7 C 3,9 C 94 % 1005,6 hPa 0,0 l/m 0 min 2 min 0 W/m 25,7 km/h (4 Bft) 100,00 %
16.02.2022 01:02 7,9 C 7,2 C 3,9 C 94 % 1005,6 hPa 0,0 l/m 0 min 2 min 0 W/m 29,0 km/h (5 Bft) 100,00 %
16.02.2022 01:04 7,9 C 7,2 C 3,9 C 94 % 1005,7 hPa 0,0 l/m 0 min 2 min 0 W/m 41,8 km/h (6 Bft) 100,00 %
16.02.2022 01:06 7,9 C 7,2 C 3,9 C 94 % 1005,6 hPa 0,0 l/m 0 min 2 min 0 W/m 25,7 km/h (4 Bft) 100,00 %
16.02.2022 01:08 7,9 C 7,2 C 3,9 C 94 % 1005,5 hPa 0,0 l/m 0 min 2 min 0 W/m 25,7 km/h (4 Bft) 100,00 %
16.02.2022 01:10 7,9 C 7,2 C 3,9 C 94 % 1005,4 hPa 0,0 l/m 0 min 2 min 0 W/m 29,0 km/h (5 Bft) 100,00 %
16.02.2022 01:12 7,9 C 7,2 C 3,9 C 94 % 1005,3 hPa 0,0 l/m 0 min 2 min 0 W/m 25,7 km/h (4 Bft) 100,00 %
16.02.2022 01:14 7,9 C 6,7 C 3,9 C 94 % 1005,3 hPa 0,0 l/m 0 min 2 min 0 W/m 32,2 km/h (5 Bft) 100,00 %
16.02.2022 01:16 7,9 C 6,7 C 3,9 C 94 % 1005,3 hPa 0,0 l/m 0 min 2 min 0 W/m 29,0 km/h (5 Bft) 100,00 %
16.02.2022 01:18 8,0 C 7,2 C 3,9 C 94 % 1005,4 hPa 0,0 l/m 0 min 2 min 0 W/m 35,4 km/h (5 Bft) 97,87 %
16.02.2022 01:20 8,0 C 7,2 C 3,9 C 94 % 1005,2 hPa 0,0 l/m 0 min 2 min 0 W/m 25,7 km/h (4 Bft) 100,00 %
16.02.2022 01:22 8,0 C 7,2 C 3,9 C 94 % 1005,2 hPa 0,0 l/m 0 min 2 min 0 W/m 35,4 km/h (5 Bft) 100,00 %
16.02.2022 01:24 8,0 C 7,2 C 3,9 C 94 % 1005,2 hPa 0,0 l/m 0 min 2 min 0 W/m 22,5 km/h (4 Bft) 100,00 %
16.02.2022 01:26 8,1 C 7,2 C 3,9 C 94 % 1005,2 hPa 0,0 l/m 0 min 2 min 0 W/m 32,2 km/h (5 Bft) 97,83 %
16.02.2022 01:28 8,1 C 7,2 C 3,9 C 94 % 1005,1 hPa 0,0 l/m 0 min 2 min 0 W/m 32,2 km/h (5 Bft) 97,87 %
16.02.2022 01:30 8,1 C 7,2 C 3,9 C 94 % 1005,1 hPa 0,0 l/m 0 min 2 min 0 W/m 22,5 km/h (4 Bft) 97,87 %
16.02.2022 01:32 8,1 C 7,2 C 3,9 C 94 % 1005,1 hPa 0,0 l/m 0 min 2 min 0 W/m 32,2 km/h (5 Bft) 97,92 %
16.02.2022 01:34 8,1 C 7,2 C 3,9 C 94 % 1005,0 hPa 0,0 l/m 0 min 2 min 0 W/m 29,0 km/h (5 Bft) 97,87 %
16.02.2022 01:36 8,1 C 7,2 C 3,9 C 94 % 1005,0 hPa 0,0 l/m 0 min 2 min 0 W/m 25,7 km/h (4 Bft) 97,87 %
16.02.2022 01:38 8,1 C 7,2 C 3,9 C 94 % 1004,9 hPa 0,0 l/m 0 min 2 min 0 W/m 22,5 km/h (4 Bft) 95,65 %
16.02.2022 01:40 8,1 C 7,2 C 3,9 C 94 % 1004,9 hPa 0,0 l/m 0 min 2 min 0 W/m 22,5 km/h (4 Bft) 97,87 %
16.02.2022 01:42 8,1 C 7,2 C 3,9 C 94 % 1004,9 hPa 0,0 l/m 0 min 2 min 0 W/m 25,7 km/h (4 Bft) 97,87 %
16.02.2022 01:44 8,1 C 7,2 C 3,9 C 94 % 1004,8 hPa 0,0 l/m 0 min 2 min 0 W/m 29,0 km/h (5 Bft) 95,74 %
16.02.2022 01:46 8,2 C 7,2 C 3,9 C 94 % 1004,8 hPa 0,0 l/m 0 min 2 min 0 W/m 32,2 km/h (5 Bft) 93,62 %
16.02.2022 01:48 8,2 C 7,2 C 3,9 C 94 % 1004,8 hPa 0,0 l/m 0 min 2 min 0 W/m 29,0 km/h (5 Bft) 97,87 %
16.02.2022 01:50 8,2 C 7,2 C 3,9 C 94 % 1004,7 hPa 0,0 l/m 0 min 2 min 0 W/m 32,2 km/h (5 Bft) 95,65 %
16.02.2022 01:52 8,2 C 7,2 C 3,9 C 94 % 1004,7 hPa 0,0 l/m 0 min 2 min 0 W/m 35,4 km/h (5 Bft) 95,74 %
16.02.2022 01:54 8,2 C 7,2 C 3,9 C 94 % 1004,7 hPa 0,0 l/m 0 min 2 min 0 W/m 32,2 km/h (5 Bft) 97,87 %
16.02.2022 01:56 8,2 C 7,2 C 3,9 C 94 % 1004,7 hPa 0,0 l/m 0 min 2 min 0 W/m 25,7 km/h (4 Bft) 97,87 %
16.02.2022 01:58 8,2 C 7,2 C 3,9 C 94 % 1004,6 hPa 0,0 l/m 0 min 2 min 0 W/m 25,7 km/h (4 Bft) 97,87 %
16.02.2022 02:00 8,2 C 7,2 C 3,9 C 94 % 1004,7 hPa 0,0 l/m 0 min 2 min 0 W/m 35,4 km/h (5 Bft) 93,62 %
16.02.2022 02:02 8,2 C 7,2 C 3,9 C 94 % 1004,6 hPa 0,0 l/m 0 min 2 min 0 W/m 29,0 km/h (5 Bft) 95,65 %
16.02.2022 02:04 8,2 C 7,2 C 3,9 C 94 % 1004,6 hPa 0,0 l/m 0 min 2 min 0 W/m 16,1 km/h (3 Bft) 95,74 %
16.02.2022 02:06 8,2 C 7,2 C 3,9 C 94 % 1004,5 hPa 0,0 l/m 0 min 2 min 0 W/m 29,0 km/h (5 Bft) 93,62 %
16.02.2022 02:08 8,2 C 7,2 C 3,9 C 94 % 1004,6 hPa 0,0 l/m 0 min 2 min 0 W/m 35,4 km/h (5 Bft) 95,74 %
16.02.2022 02:10 8,2 C 7,2 C 3,9 C 94 % 1004,6 hPa 0,0 l/m 0 min 2 min 0 W/m 32,2 km/h (5 Bft) 93,62 %
16.02.2022 02:12 8,2 C 7,2 C 3,9 C 94 % 1004,5 hPa 0,2 l/m 0 min 2 min 0 W/m 29,0 km/h (5 Bft) 97,87 %
16.02.2022 02:14 8,2 C 7,2 C 3,9 C 94 % 1004,4 hPa 0,0 l/m 0 min 2 min 0 W/m 32,2 km/h (5 Bft) 97,83 %
16.02.2022 02:16 8,2 C 7,2 C 3,9 C 94 % 1004,4 hPa 0,0 l/m 0 min 2 min 0 W/m 32,2 km/h (5 Bft) 97,87 %
16.02.2022 02:18 8,2 C 7,2 C 3,9 C 94 % 1004,3 hPa 0,0 l/m 0 min 2 min 0 W/m 22,5 km/h (4 Bft) 97,87 %
16.02.2022 02:20 8,2 C 7,2 C 3,9 C 94 % 1004,3 hPa 0,0 l/m 0 min 2 min 0 W/m 32,2 km/h (5 Bft) 97,87 %
16.02.2022 02:22 8,2 C 7,2 C 3,9 C 94 % 1004,4 hPa 0,0 l/m 0 min 2 min 0 W/m 25,7 km/h (4 Bft) 97,87 %
16.02.2022 02:24 8,2 C 7,2 C 3,9 C 94 % 1004,4 hPa 0,0 l/m 0 min 2 min 0 W/m 25,7 km/h (4 Bft) 95,74 %
16.02.2022 02:26 8,2 C 7,2 C 3,9 C 94 % 1004,4 hPa 0,0 l/m 0 min 2 min 0 W/m 32,2 km/h (5 Bft) 97,83 %
16.02.2022 02:28 8,2 C 7,2 C 3,9 C 94 % 1004,3 hPa 0,0 l/m 0 min 2 min 0 W/m 29,0 km/h (5 Bft) 97,87 %
16.02.2022 02:30 8,2 C 7,2 C 3,9 C 94 % 1004,3 hPa 0,0 l/m 0 min 2 min 0 W/m 19,3 km/h (3 Bft) 97,87 %
16.02.2022 02:32 8,2 C 7,2 C 3,9 C 94 % 1004,2 hPa 0,0 l/m 0 min 2 min 0 W/m 22,5 km/h (4 Bft) 97,87 %
16.02.2022 02:34 8,2 C 7,2 C 3,9 C 94 % 1004,2 hPa 0,0 l/m 0 min 2 min 0 W/m 19,3 km/h (3 Bft) 100,00 %
16.02.2022 02:36 8,2 C 7,2 C 3,9 C 94 % 1004,1 hPa 0,0 l/m 0 min 2 min 0 W/m 25,7 km/h (4 Bft) 100,00 %
16.02.2022 02:38 8,2 C 7,2 C 3,9 C 94 % 1004,1 hPa 0,0 l/m 0 min 2 min 0 W/m 22,5 km/h (4 Bft) 100,00 %
16.02.2022 02:40 8,2 C 7,2 C 3,9 C 94 % 1004,1 hPa 0,0 l/m 0 min 2 min 0 W/m 35,4 km/h (5 Bft) 97,87 %
16.02.2022 02:42 8,2 C 7,2 C 3,9 C 94 % 1004,0 hPa 0,0 l/m 0 min 2 min 0 W/m 16,1 km/h (3 Bft) 100,00 %
16.02.2022 02:44 8,2 C 7,2 C 3,9 C 94 % 1004,1 hPa 0,0 l/m 0 min 2 min 0 W/m 32,2 km/h (5 Bft) 100,00 %
16.02.2022 02:46 8,2 C 7,2 C 3,9 C 94 % 1004,0 hPa 0,0 l/m 0 min 2 min 0 W/m 25,7 km/h (4 Bft) 100,00 %
16.02.2022 02:48 8,2 C 7,2 C 3,9 C 94 % 1004,1 hPa 0,0 l/m 0 min 2 min 0 W/m 22,5 km/h (4 Bft) 100,00 %
16.02.2022 02:50 8,2 C 7,2 C 3,9 C 94 % 1003,9 hPa 0,0 l/m 0 min 2 min 0 W/m 32,2 km/h (5 Bft) 100,00 %
16.02.2022 02:52 8,2 C 7,2 C 3,9 C 94 % 1003,9 hPa 0,0 l/m 0 min 2 min 0 W/m 25,7 km/h (4 Bft) 100,00 %
16.02.2022 02:54 8,2 C 7,2 C 3,9 C 94 % 1003,9 hPa 0,0 l/m 0 min 2 min 0 W/m 32,2 km/h (5 Bft) 100,00 %
16.02.2022 02:56 8,2 C 7,2 C 3,9 C 94 % 1003,9 hPa 0,0 l/m 0 min 2 min 0 W/m 38,6 km/h (5 Bft) 97,87 %
16.02.2022 02:58 8,2 C 7,2 C 3,9 C 94 % 1003,8 hPa 0,0 l/m 0 min 2 min 0 W/m 22,5 km/h (4 Bft) 97,87 %
16.02.2022 03:00 8,2 C 7,2 C 4,4 C 94 % 1003,9 hPa 0,0 l/m 0 min 2 min 0 W/m 29,0 km/h (5 Bft) 97,83 %
16.02.2022 03:02 8,2 C 7,2 C 4,4 C 94 % 1003,8 hPa 0,0 l/m 0 min 2 min 0 W/m 25,7 km/h (4 Bft) 97,92 %
16.02.2022 03:04 8,2 C 7,2 C 4,4 C 94 % 1003,9 hPa 0,0 l/m 0 min 2 min 0 W/m 35,4 km/h (5 Bft) 97,87 %
16.02.2022 03:06 8,2 C 7,2 C 4,4 C 94 % 1003,7 hPa 0,0 l/m 0 min 2 min 0 W/m 35,4 km/h (5 Bft) 97,87 %
16.02.2022 03:08 8,2 C 7,2 C 4,4 C 94 % 1003,7 hPa 0,0 l/m 0 min 2 min 0 W/m 32,2 km/h (5 Bft) 95,74 %
16.02.2022 03:10 8,2 C 7,2 C 4,4 C 94 % 1003,7 hPa 0,0 l/m 0 min 2 min 0 W/m 22,5 km/h (4 Bft) 97,87 %
16.02.2022 03:12 8,2 C 7,2 C 4,4 C 94 % 1003,8 hPa 0,2 l/m 0 min 2 min 0 W/m 32,2 km/h (5 Bft) 97,83 %
16.02.2022 03:14 8,2 C 7,2 C 4,4 C 94 % 1003,7 hPa 0,0 l/m 0 min 2 min 0 W/m 35,4 km/h (5 Bft) 97,87 %
16.02.2022 03:16 8,2 C 7,2 C 4,4 C 94 % 1003,7 hPa 0,0 l/m 0 min 2 min 0 W/m 29,0 km/h (5 Bft) 97,87 %
16.02.2022 03:18 8,2 C 7,2 C 4,4 C 94 % 1003,7 hPa 0,0 l/m 0 min 2 min 0 W/m 19,3 km/h (3 Bft) 97,87 %
16.02.2022 03:20 8,2 C 7,2 C 4,4 C 94 % 1003,6 hPa 0,0 l/m 0 min 2 min 0 W/m 25,7 km/h (4 Bft) 97,87 %
16.02.2022 03:22 8,2 C 7,2 C 4,4 C 95 % 1003,6 hPa 0,0 l/m 0 min 2 min 0 W/m 25,7 km/h (4 Bft) 97,87 %
16.02.2022 03:24 8,2 C 7,2 C 4,4 C 95 % 1003,5 hPa 0,0 l/m 0 min 2 min 0 W/m 29,0 km/h (5 Bft) 76,60 %
16.02.2022 03:26 8,2 C 7,2 C 4,4 C 95 % 1003,4 hPa 0,0 l/m 0 min 2 min 0 W/m 35,4 km/h (5 Bft) 75,00 %
16.02.2022 03:28 8,2 C 7,2 C 4,4 C 95 % 1003,4 hPa 0,0 l/m 0 min 2 min 0 W/m 32,2 km/h (5 Bft) 97,87 %
16.02.2022 03:30 8,2 C 7,2 C 4,4 C 95 % 1003,4 hPa 0,0 l/m 0 min 2 min 0 W/m 29,0 km/h (5 Bft) 97,87 %
16.02.2022 03:32 8,3 C 7,2 C 4,4 C 95 % 1003,4 hPa 0,0 l/m 0 min 2 min 0 W/m 38,6 km/h (5 Bft) 97,87 %
16.02.2022 03:34 8,2 C 7,2 C 4,4 C 95 % 1003,4 hPa 0,0 l/m 0 min 2 min 0 W/m 25,7 km/h (4 Bft) 97,87 %
16.02.2022 03:36 8,3 C 7,2 C 4,4 C 95 % 1003,4 hPa 0,0 l/m 0 min 2 min 0 W/m 25,7 km/h (4 Bft) 97,83 %
16.02.2022 03:38 8,2 C 7,2 C 4,4 C 95 % 1003,4 hPa 0,0 l/m 0 min 2 min 0 W/m 25,7 km/h (4 Bft) 97,87 %
16.02.2022 03:40 8,3 C 7,2 C 4,4 C 95 % 1003,2 hPa 0,0 l/m 0 min 2 min 0 W/m 29,0 km/h (5 Bft) 97,87 %
16.02.2022 03:42 8,3 C 7,2 C 4,4 C 95 % 1003,1 hPa 0,0 l/m 0 min 2 min 0 W/m 22,5 km/h (4 Bft) 93,62 %
16.02.2022 03:44 8,3 C 7,2 C 4,4 C 95 % 1003,1 hPa 0,0 l/m 0 min 2 min 0 W/m 29,0 km/h (5 Bft) 97,87 %
16.02.2022 03:46 8,3 C 7,2 C 4,4 C 95 % 1003,1 hPa 0,0 l/m 0 min 2 min 0 W/m 32,2 km/h (5 Bft) 95,74 %
16.02.2022 03:48 8,3 C 7,2 C 4,4 C 95 % 1003,0 hPa 0,0 l/m 0 min 0 min 0 W/m 19,3 km/h (3 Bft) 100,00 %
16.02.2022 03:50 8,3 C 7,2 C 4,4 C 95 % 1002,9 hPa 0,0 l/m 0 min 2 min 0 W/m 25,7 km/h (4 Bft) 100,00 %
16.02.2022 03:52 8,3 C 7,2 C 4,4 C 95 % 1003,0 hPa 0,0 l/m 0 min 2 min 0 W/m 38,6 km/h (5 Bft) 97,87 %
16.02.2022 03:54 8,3 C 7,2 C 4,4 C 95 % 1002,9 hPa 0,0 l/m 0 min 2 min 0 W/m 35,4 km/h (5 Bft) 100,00 %
16.02.2022 03:56 8,3 C 7,2 C 4,4 C 95 % 1002,8 hPa 0,0 l/m 0 min 2 min 0 W/m 19,3 km/h (3 Bft) 95,74 %
16.02.2022 03:58 8,3 C 7,2 C 4,4 C 95 % 1002,9 hPa 0,0 l/m 0 min 2 min 0 W/m 29,0 km/h (5 Bft) 97,87 %
16.02.2022 04:00 8,3 C 7,8 C 4,4 C 95 % 1002,9 hPa 0,0 l/m 0 min 0 min 0 W/m 48,3 km/h (6 Bft) 93,48 %
16.02.2022 04:02 8,3 C 7,8 C 4,4 C 95 % 1002,7 hPa 0,0 l/m 0 min 0 min 0 W/m 32,2 km/h (5 Bft) 96,15 %
16.02.2022 04:04 8,3 C 7,8 C 4,4 C 95 % 1002,7 hPa 0,0 l/m 0 min 2 min 0 W/m 32,2 km/h (5 Bft) 95,74 %
16.02.2022 04:06 8,4 C 7,8 C 4,4 C 95 % 1002,7 hPa 0,0 l/m 0 min 2 min 0 W/m 29,0 km/h (5 Bft) 93,62 %
16.02.2022 04:08 8,4 C 7,8 C 4,4 C 94 % 1002,8 hPa 0,0 l/m 0 min 2 min 0 W/m 35,4 km/h (5 Bft) 97,87 %
16.02.2022 04:10 8,4 C 7,8 C 4,4 C 94 % 1002,8 hPa 0,0 l/m 0 min 2 min 0 W/m 29,0 km/h (5 Bft) 95,65 %
16.02.2022 04:12 8,4 C 7,8 C 4,4 C 94 % 1002,7 hPa 0,0 l/m 0 min 0 min 0 W/m 35,4 km/h (5 Bft) 97,87 %
16.02.2022 04:14 8,4 C 7,8 C 4,4 C 94 % 1002,8 hPa 0,0 l/m 0 min 0 min 0 W/m 32,2 km/h (5 Bft) 95,74 %
16.02.2022 04:16 8,4 C 7,8 C 4,4 C 94 % 1002,6 hPa 0,0 l/m 0 min 0 min 0 W/m 29,0 km/h (5 Bft) 95,74 %
16.02.2022 04:18 8,4 C 7,8 C 4,4 C 94 % 1002,9 hPa 0,0 l/m 0 min 0 min 0 W/m 25,7 km/h (4 Bft) 95,74 %
16.02.2022 04:20 8,4 C 7,8 C 4,4 C 94 % 1002,7 hPa 0,0 l/m 0 min 0 min 0 W/m 25,7 km/h (4 Bft) 93,62 %
16.02.2022 04:22 8,4 C 7,8 C 4,4 C 94 % 1002,7 hPa 0,0 l/m 0 min 0 min 0 W/m 35,4 km/h (5 Bft) 95,65 %
16.02.2022 04:24 8,5 C 7,8 C 4,4 C 94 % 1002,6 hPa 0,0 l/m 0 min 0 min 0 W/m 29,0 km/h (5 Bft) 95,74 %
16.02.2022 04:26 8,4 C 7,8 C 4,4 C 94 % 1002,6 hPa 0,0 l/m 0 min 0 min 0 W/m 19,3 km/h (3 Bft) 95,74 %
16.02.2022 04:28 8,5 C 7,8 C 4,4 C 94 % 1002,5 hPa 0,0 l/m 0 min 0 min 0 W/m 41,8 km/h (6 Bft) 95,74 %
16.02.2022 04:30 8,5 C 7,8 C 4,4 C 94 % 1002,5 hPa 0,0 l/m 0 min 0 min 0 W/m 29,0 km/h (5 Bft) 97,87 %
16.02.2022 04:32 8,5 C 7,8 C 4,4 C 94 % 1002,5 hPa 0,0 l/m 0 min 0 min 0 W/m 35,4 km/h (5 Bft) 95,74 %
16.02.2022 04:34 8,5 C 7,8 C 4,4 C 94 % 1002,6 hPa 0,0 l/m 0 min 0 min 0 W/m 32,2 km/h (5 Bft) 97,83 %
16.02.2022 04:36 8,6 C 7,8 C 4,4 C 94 % 1002,5 hPa 0,0 l/m 0 min 0 min 0 W/m 25,7 km/h (4 Bft) 97,87 %
16.02.2022 04:38 8,6 C 7,8 C 4,4 C 94 % 1002,5 hPa 0,0 l/m 0 min 0 min 0 W/m 22,5 km/h (4 Bft) 97,87 %
16.02.2022 04:40 8,6 C 7,8 C 4,4 C 94 % 1002,5 hPa 0,0 l/m 0 min 0 min 0 W/m 29,0 km/h (5 Bft) 100,00 %
16.02.2022 04:42 8,6 C 7,8 C 4,4 C 94 % 1002,6 hPa 0,0 l/m 0 min 0 min 0 W/m 38,6 km/h (5 Bft) 100,00 %
16.02.2022 04:44 8,6 C 7,8 C 4,4 C 94 % 1002,5 hPa 0,0 l/m 0 min 0 min 0 W/m 29,0 km/h (5 Bft) 97,87 %
16.02.2022 04:46 8,6 C 7,8 C 4,4 C 94 % 1002,5 hPa 0,0 l/m 0 min 0 min 0 W/m 35,4 km/h (5 Bft) 100,00 %
16.02.2022 04:48 8,6 C 7,8 C 4,4 C 93 % 1002,4 hPa 0,0 l/m 0 min 0 min 0 W/m 29,0 km/h (5 Bft) 100,00 %
16.02.2022 04:50 8,7 C 7,8 C 4,4 C 93 % 1002,4 hPa 0,0 l/m 0 min 0 min 0 W/m 35,4 km/h (5 Bft) 100,00 %
16.02.2022 04:52 8,7 C 7,8 C 4,4 C 93 % 1002,3 hPa 0,0 l/m 0 min 0 min 0 W/m 22,5 km/h (4 Bft) 97,87 %
16.02.2022 04:54 8,7 C 7,8 C 4,4 C 93 % 1002,4 hPa 0,0 l/m 0 min 0 min 0 W/m 35,4 km/h (5 Bft) 100,00 %
16.02.2022 04:56 8,7 C 7,8 C 4,4 C 93 % 1002,4 hPa 0,0 l/m 0 min 0 min 0 W/m 22,5 km/h (4 Bft) 100,00 %
16.02.2022 04:58 8,7 C 7,8 C 4,4 C 93 % 1002,4 hPa 0,0 l/m 0 min 0 min 0 W/m 29,0 km/h (5 Bft) 100,00 %
16.02.2022 05:00 8,7 C 7,8 C 4,4 C 93 % 1002,3 hPa 0,0 l/m 0 min 0 min 0 W/m 22,5 km/h (4 Bft) 100,00 %
16.02.2022 05:02 8,7 C 7,8 C 4,4 C 93 % 1002,3 hPa 0,0 l/m 0 min 0 min 0 W/m 22,5 km/h (4 Bft) 100,00 %
16.02.2022 05:04 8,7 C 7,8 C 4,4 C 93 % 1002,3 hPa 0,0 l/m 0 min 2 min 0 W/m 32,2 km/h (5 Bft) 97,87 %
16.02.2022 05:06 8,7 C 7,8 C 4,4 C 93 % 1002,2 hPa 0,0 l/m 0 min 2 min 0 W/m 29,0 km/h (5 Bft) 100,00 %
16.02.2022 05:08 8,7 C 7,8 C 4,4 C 93 % 1002,3 hPa 0,0 l/m 0 min 2 min 0 W/m 29,0 km/h (5 Bft) 97,87 %
16.02.2022 05:10 8,7 C 7,8 C 4,4 C 93 % 1002,3 hPa 0,0 l/m 0 min 2 min 0 W/m 25,7 km/h (4 Bft) 100,00 %
16.02.2022 05:12 8,7 C 7,8 C 4,4 C 93 % 1002,2 hPa 0,0 l/m 0 min 2 min 0 W/m 25,7 km/h (4 Bft) 100,00 %
16.02.2022 05:14 8,7 C 7,8 C 4,4 C 93 % 1002,2 hPa 0,0 l/m 0 min 0 min 0 W/m 16,1 km/h (3 Bft) 100,00 %
16.02.2022 05:16 8,7 C 7,8 C 4,4 C 93 % 1002,2 hPa 0,0 l/m 0 min 2 min 0 W/m 22,5 km/h (4 Bft) 100,00 %
16.02.2022 05:18 8,7 C 7,8 C 4,4 C 93 % 1002,1 hPa 0,0 l/m 0 min 2 min 0 W/m 32,2 km/h (5 Bft) 100,00 %
16.02.2022 05:20 8,7 C 7,8 C 4,4 C 93 % 1002,0 hPa 0,0 l/m 0 min 2 min 0 W/m 16,1 km/h (3 Bft) 100,00 %
16.02.2022 05:22 8,7 C 7,8 C 4,4 C 93 % 1002,0 hPa 0,0 l/m 0 min 2 min 0 W/m 22,5 km/h (4 Bft) 100,00 %
16.02.2022 05:24 8,7 C 7,8 C 4,4 C 93 % 1001,9 hPa 0,0 l/m 0 min 2 min 0 W/m 29,0 km/h (5 Bft) 100,00 %
16.02.2022 05:26 8,7 C 7,8 C 4,4 C 93 % 1001,9 hPa 0,0 l/m 0 min 0 min 0 W/m 16,1 km/h (3 Bft) 100,00 %
16.02.2022 05:28 8,7 C 7,8 C 4,4 C 93 % 1001,8 hPa 0,0 l/m 0 min 2 min 0 W/m 25,7 km/h (4 Bft) 100,00 %
16.02.2022 05:30 8,7 C 7,8 C 4,4 C 93 % 1001,8 hPa 0,0 l/m 0 min 2 min 0 W/m 35,4 km/h (5 Bft) 100,00 %
16.02.2022 05:32 8,7 C 7,8 C 4,4 C 93 % 1001,8 hPa 0,0 l/m 0 min 2 min 0 W/m 25,7 km/h (4 Bft) 100,00 %
16.02.2022 05:34 8,7 C 7,8 C 4,4 C 93 % 1001,8 hPa 0,0 l/m 0 min 2 min 0 W/m 22,5 km/h (4 Bft) 100,00 %
16.02.2022 05:36 8,7 C 7,8 C 4,4 C 93 % 1001,8 hPa 0,0 l/m 0 min 2 min 0 W/m 25,7 km/h (4 Bft) 100,00 %
16.02.2022 05:38 8,7 C 7,8 C 4,4 C 93 % 1001,7 hPa 0,0 l/m 0 min 2 min 0 W/m 19,3 km/h (3 Bft) 100,00 %
16.02.2022 05:40 8,7 C 7,8 C 4,4 C 93 % 1001,7 hPa 0,0 l/m 0 min 2 min 0 W/m 29,0 km/h (5 Bft) 100,00 %
16.02.2022 05:42 8,7 C 7,8 C 4,4 C 94 % 1001,7 hPa 0,0 l/m 0 min 2 min 0 W/m 32,2 km/h (5 Bft) 100,00 %
16.02.2022 05:44 8,7 C 7,8 C 4,4 C 94 % 1001,7 hPa 0,0 l/m 0 min 2 min 0 W/m 32,2 km/h (5 Bft) 100,00 %
16.02.2022 05:46 8,7 C 7,8 C 4,4 C 94 % 1001,6 hPa 0,0 l/m 0 min 2 min 0 W/m 35,4 km/h (5 Bft) 96,15 %
16.02.2022 05:48 8,7 C 7,8 C 4,4 C 94 % 1001,5 hPa 0,0 l/m 0 min 2 min 0 W/m 25,7 km/h (4 Bft) 100,00 %
16.02.2022 05:50 8,7 C 7,8 C 4,4 C 94 % 1001,7 hPa 0,2 l/m 0 min 2 min 0 W/m 38,6 km/h (5 Bft) 95,74 %
16.02.2022 05:52 8,7 C 7,8 C 5,0 C 94 % 1001,4 hPa 0,0 l/m 0 min 2 min 0 W/m 38,6 km/h (5 Bft) 95,74 %
16.02.2022 05:54 8,7 C 7,8 C 5,0 C 94 % 1001,4 hPa 0,0 l/m 0 min 0 min 0 W/m 25,7 km/h (4 Bft) 97,87 %
16.02.2022 05:56 8,7 C 7,8 C 5,0 C 94 % 1001,5 hPa 0,0 l/m 0 min 0 min 0 W/m 35,4 km/h (5 Bft) 97,87 %
16.02.2022 05:58 8,7 C 7,8 C 5,0 C 94 % 1001,2 hPa 0,0 l/m 0 min 2 min 0 W/m 41,8 km/h (6 Bft) 97,83 %
16.02.2022 06:00 8,7 C 7,8 C 5,0 C 94 % 1001,3 hPa 0,0 l/m 0 min 2 min 0 W/m 22,5 km/h (4 Bft) 97,87 %
16.02.2022 06:02 8,7 C 7,8 C 5,0 C 94 % 1001,3 hPa 0,0 l/m 0 min 2 min 0 W/m 32,2 km/h (5 Bft) 95,12 %
16.02.2022 06:04 8,7 C 7,8 C 5,0 C 94 % 1001,2 hPa 0,0 l/m 0 min 2 min 0 W/m 35,4 km/h (5 Bft) 93,62 %
16.02.2022 06:06 8,7 C 7,8 C 5,0 C 94 % 1001,1 hPa 0,0 l/m 0 min 2 min 0 W/m 38,6 km/h (5 Bft) 95,74 %
16.02.2022 06:08 8,7 C 7,8 C 5,0 C 94 % 1001,1 hPa 0,0 l/m 0 min 0 min 0 W/m 38,6 km/h (5 Bft) 95,74 %
16.02.2022 06:10 8,7 C 7,8 C 5,0 C 94 % 1001,1 hPa 0,0 l/m 0 min 0 min 0 W/m 38,6 km/h (5 Bft) 95,65 %
16.02.2022 06:12 8,7 C 7,8 C 5,0 C 94 % 1001,0 hPa 0,0 l/m 0 min 0 min 0 W/m 38,6 km/h (5 Bft) 95,74 %
16.02.2022 06:14 8,7 C 7,8 C 5,0 C 94 % 1000,9 hPa 0,0 l/m 0 min 0 min 0 W/m 25,7 km/h (4 Bft) 95,74 %
16.02.2022 06:16 8,7 C 7,8 C 5,0 C 94 % 1000,8 hPa 0,0 l/m 0 min 2 min 0 W/m 35,4 km/h (5 Bft) 95,74 %
16.02.2022 06:18 8,7 C 7,8 C 5,0 C 94 % 1000,8 hPa 0,0 l/m 0 min 2 min 0 W/m 32,2 km/h (5 Bft) 95,74 %
16.02.2022 06:20 8,7 C 7,8 C 5,0 C 94 % 1000,7 hPa 0,0 l/m 0 min 0 min 0 W/m 29,0 km/h (5 Bft) 95,74 %
16.02.2022 06:22 8,7 C 7,8 C 5,0 C 94 % 1000,7 hPa 0,0 l/m 0 min 0 min 0 W/m 22,5 km/h (4 Bft) 91,49 %
16.02.2022 06:24 8,7 C 7,8 C 5,0 C 94 % 1000,6 hPa 0,0 l/m 0 min 0 min 0 W/m 22,5 km/h (4 Bft) 97,83 %
16.02.2022 06:26 8,7 C 7,8 C 5,0 C 94 % 1000,5 hPa 0,0 l/m 0 min 0 min 0 W/m 32,2 km/h (5 Bft) 97,87 %
16.02.2022 06:28 8,7 C 7,8 C 5,0 C 94 % 1000,5 hPa 0,0 l/m 0 min 0 min 0 W/m 19,3 km/h (3 Bft) 97,87 %
16.02.2022 06:30 8,7 C 7,8 C 5,0 C 94 % 1000,4 hPa 0,0 l/m 0 min 0 min 0 W/m 29,0 km/h (5 Bft) 97,87 %
16.02.2022 06:32 8,8 C 8,3 C 5,0 C 94 % 1000,4 hPa 0,0 l/m 0 min 0 min 0 W/m 38,6 km/h (5 Bft) 95,74 %
16.02.2022 06:34 8,8 C 8,3 C 5,0 C 94 % 1000,3 hPa 0,0 l/m 0 min 0 min 0 W/m 32,2 km/h (5 Bft) 95,74 %
16.02.2022 06:36 8,8 C 8,3 C 5,0 C 94 % 1000,2 hPa 0,0 l/m 0 min 0 min 0 W/m 35,4 km/h (5 Bft) 95,65 %
16.02.2022 06:38 8,8 C 8,3 C 5,0 C 94 % 1000,2 hPa 0,0 l/m 0 min 0 min 0 W/m 32,2 km/h (5 Bft) 93,62 %
16.02.2022 06:40 8,8 C 8,3 C 5,0 C 94 % 1000,3 hPa 0,0 l/m 0 min 0 min 0 W/m 29,0 km/h (5 Bft) 95,74 %
16.02.2022 06:42 8,8 C 8,3 C 5,0 C 94 % 1000,3 hPa 0,0 l/m 0 min 0 min 0 W/m 29,0 km/h (5 Bft) 95,74 %
16.02.2022 06:44 8,8 C 8,3 C 5,0 C 94 % 1000,1 hPa 0,0 l/m 0 min 0 min 0 W/m 32,2 km/h (5 Bft) 95,74 %
16.02.2022 06:46 8,9 C 8,3 C 5,0 C 94 % 1000,1 hPa 0,0 l/m 0 min 0 min 0 W/m 19,3 km/h (3 Bft) 95,65 %
16.02.2022 06:48 8,9 C 8,3 C 5,0 C 94 % 1000,0 hPa 0,0 l/m 0 min 0 min 0 W/m 41,8 km/h (6 Bft) 93,62 %
16.02.2022 06:50 8,9 C 8,3 C 5,0 C 94 % 1000,1 hPa 0,0 l/m 0 min 2 min 0 W/m 25,7 km/h (4 Bft) 93,62 %
16.02.2022 06:52 8,9 C 8,3 C 5,0 C 94 % 1000,0 hPa 0,0 l/m 0 min 0 min 0 W/m 41,8 km/h (6 Bft) 95,74 %
16.02.2022 06:54 8,9 C 8,3 C 5,0 C 93 % 999,9 hPa 0,0 l/m 0 min 0 min 0 W/m 29,0 km/h (5 Bft) 97,87 %
16.02.2022 06:56 9,0 C 8,3 C 5,0 C 93 % 999,8 hPa 0,0 l/m 0 min 0 min 0 W/m 35,4 km/h (5 Bft) 97,87 %
16.02.2022 06:58 9,0 C 8,3 C 5,0 C 93 % 999,8 hPa 0,0 l/m 0 min 0 min 0 W/m 38,6 km/h (5 Bft) 97,83 %
16.02.2022 07:00 9,1 C 8,3 C 5,0 C 93 % 999,8 hPa 0,0 l/m 0 min 0 min 0 W/m 22,5 km/h (4 Bft) 97,87 %
16.02.2022 07:02 9,1 C 8,3 C 5,0 C 93 % 999,7 hPa 0,0 l/m 0 min 0 min 0 W/m 25,7 km/h (4 Bft) 95,74 %
16.02.2022 07:04 9,1 C 8,3 C 5,0 C 93 % 999,8 hPa 0,0 l/m 0 min 0 min 0 W/m 29,0 km/h (5 Bft) 97,87 %
16.02.2022 07:06 9,1 C 8,3 C 5,0 C 93 % 999,7 hPa 0,0 l/m 0 min 0 min 0 W/m 25,7 km/h (4 Bft) 95,74 %
16.02.2022 07:08 9,1 C 8,3 C 5,0 C 93 % 999,7 hPa 0,0 l/m 0 min 0 min 0 W/m 35,4 km/h (5 Bft) 97,87 %
16.02.2022 07:10 9,1 C 8,3 C 5,0 C 92 % 999,7 hPa 0,0 l/m 0 min 0 min 0 W/m 22,5 km/h (4 Bft) 97,83 %
16.02.2022 07:12 9,1 C 8,3 C 5,0 C 92 % 999,6 hPa 0,0 l/m 0 min 0 min 0 W/m 22,5 km/h (4 Bft) 97,87 %
16.02.2022 07:14 9,2 C 8,3 C 5,0 C 92 % 999,6 hPa 0,0 l/m 0 min 0 min 0 W/m 22,5 km/h (4 Bft) 100,00 %
16.02.2022 07:16 9,2 C 8,3 C 5,0 C 92 % 999,5 hPa 0,0 l/m 0 min 0 min 0 W/m 32,2 km/h (5 Bft) 100,00 %
16.02.2022 07:18 9,2 C 8,3 C 5,0 C 92 % 999,5 hPa 0,0 l/m 0 min 0 min 0 W/m 38,6 km/h (5 Bft) 100,00 %
16.02.2022 07:20 9,2 C 8,3 C 5,0 C 92 % 999,5 hPa 0,0 l/m 0 min 0 min 0 W/m 16,1 km/h (3 Bft) 100,00 %
16.02.2022 07:22 9,2 C 8,3 C 5,0 C 92 % 999,5 hPa 0,0 l/m 0 min 0 min 0 W/m 51,5 km/h (7 Bft) 100,00 %
16.02.2022 07:24 9,3 C 8,9 C 5,0 C 92 % 999,4 hPa 0,0 l/m 0 min 0 min 0 W/m 35,4 km/h (5 Bft) 100,00 %
16.02.2022 07:26 9,3 C 8,3 C 5,0 C 92 % 999,4 hPa 0,0 l/m 0 min 0 min 0 W/m 22,5 km/h (4 Bft) 97,87 %
16.02.2022 07:28 9,3 C 8,3 C 5,0 C 92 % 999,4 hPa 0,0 l/m 0 min 0 min 0 W/m 29,0 km/h (5 Bft) 97,87 %
16.02.2022 07:30 9,3 C 8,9 C 5,0 C 92 % 999,3 hPa 0,0 l/m 0 min 0 min 0 W/m 45,1 km/h (6 Bft) 100,00 %
16.02.2022 07:32 9,3 C 8,9 C 5,0 C 92 % 999,2 hPa 0,0 l/m 0 min 0 min 0 W/m 38,6 km/h (5 Bft) 98,11 %
16.02.2022 07:34 9,4 C 8,9 C 5,0 C 92 % 999,3 hPa 0,0 l/m 0 min 0 min 0 W/m 48,3 km/h (6 Bft) 97,87 %
16.02.2022 07:36 9,4 C 8,9 C 5,0 C 91 % 999,1 hPa 0,0 l/m 0 min 0 min 0 W/m 41,8 km/h (6 Bft) 100,00 %
16.02.2022 07:38 9,4 C 8,3 C 5,0 C 91 % 999,1 hPa 0,0 l/m 0 min 2 min 0 W/m 32,2 km/h (5 Bft) 93,62 %
16.02.2022 07:40 9,5 C 8,3 C 5,0 C 91 % 999,1 hPa 0,0 l/m 0 min 2 min 0 W/m 38,6 km/h (5 Bft) 100,00 %
16.02.2022 07:42 9,5 C 8,3 C 5,0 C 92 % 999,1 hPa 0,0 l/m 0 min 2 min 0 W/m 29,0 km/h (5 Bft) 100,00 %
16.02.2022 07:44 9,5 C 8,3 C 5,0 C 91 % 999,0 hPa 0,2 l/m 0 min 2 min 0 W/m 32,2 km/h (5 Bft) 97,83 %
16.02.2022 07:46 9,4 C 8,3 C 5,0 C 92 % 998,9 hPa 0,0 l/m 0 min 2 min 0 W/m 41,8 km/h (6 Bft) 97,87 %
16.02.2022 07:48 9,4 C 8,3 C 5,0 C 92 % 998,9 hPa 0,0 l/m 0 min 2 min 0 W/m 25,7 km/h (4 Bft) 95,74 %
16.02.2022 07:50 9,4 C 8,3 C 5,0 C 92 % 998,8 hPa 0,0 l/m 0 min 2 min 0 W/m 35,4 km/h (5 Bft) 95,74 %
16.02.2022 07:52 9,4 C 8,3 C 5,0 C 92 % 998,8 hPa 0,0 l/m 0 min 2 min 0 W/m 29,0 km/h (5 Bft) 95,74 %
16.02.2022 07:54 9,4 C 8,3 C 5,0 C 92 % 998,7 hPa 0,0 l/m 0 min 2 min 0 W/m 32,2 km/h (5 Bft) 97,87 %
16.02.2022 07:56 9,4 C 8,3 C 5,0 C 92 % 998,8 hPa 0,0 l/m 0 min 2 min 0 W/m 29,0 km/h (5 Bft) 97,83 %
16.02.2022 07:58 9,4 C 8,3 C 5,0 C 92 % 998,7 hPa 0,0 l/m 0 min 2 min 0 W/m 38,6 km/h (5 Bft) 97,87 %
16.02.2022 08:00 9,4 C 8,3 C 5,0 C 93 % 998,7 hPa 0,0 l/m 0 min 2 min 0 W/m 35,4 km/h (5 Bft) 97,87 %
16.02.2022 08:02 9,4 C 8,3 C 5,0 C 93 % 998,7 hPa 0,0 l/m 0 min 2 min 0 W/m 25,7 km/h (4 Bft) 97,87 %
16.02.2022 08:04 9,3 C 8,3 C 5,0 C 93 % 998,8 hPa 0,2 l/m 0 min 2 min 0 W/m 25,7 km/h (4 Bft) 95,74 %
16.02.2022 08:06 9,3 C 8,3 C 5,0 C 93 % 998,7 hPa 0,0 l/m 0 min 2 min 0 W/m 25,7 km/h (4 Bft) 97,83 %
16.02.2022 08:08 9,3 C 8,3 C 5,0 C 93 % 998,8 hPa 0,0 l/m 0 min 2 min 0 W/m 32,2 km/h (5 Bft) 97,87 %
16.02.2022 08:10 9,3 C 8,3 C 5,6 C 93 % 998,8 hPa 0,0 l/m 0 min 0 min 0 W/m 48,3 km/h (6 Bft) 97,87 %
16.02.2022 08:12 9,4 C 8,3 C 5,6 C 93 % 998,8 hPa 0,0 l/m 0 min 0 min 5 W/m 41,8 km/h (6 Bft) 97,87 %
16.02.2022 08:14 9,4 C 8,3 C 5,6 C 93 % 998,6 hPa 0,0 l/m 0 min 0 min 6 W/m 29,0 km/h (5 Bft) 97,87 %
16.02.2022 08:16 9,4 C 8,3 C 5,6 C 93 % 998,6 hPa 0,0 l/m 0 min 0 min 8 W/m 25,7 km/h (4 Bft) 100,00 %
16.02.2022 08:18 9,4 C 8,9 C 5,6 C 93 % 998,7 hPa 0,0 l/m 0 min 2 min 10 W/m 35,4 km/h (5 Bft) 100,00 %
16.02.2022 08:20 9,4 C 8,9 C 5,6 C 94 % 998,6 hPa 0,0 l/m 0 min 2 min 9 W/m 41,8 km/h (6 Bft) 97,87 %
16.02.2022 08:22 9,5 C 8,9 C 5,6 C 94 % 998,7 hPa 0,0 l/m 0 min 2 min 6 W/m 45,1 km/h (6 Bft) 100,00 %
16.02.2022 08:24 9,6 C 8,9 C 5,6 C 94 % 998,6 hPa 0,0 l/m 0 min 2 min 6 W/m 32,2 km/h (5 Bft) 100,00 %
16.02.2022 08:26 9,6 C 8,9 C 5,6 C 93 % 998,6 hPa 0,0 l/m 0 min 2 min 3 W/m 29,0 km/h (5 Bft) 100,00 %
16.02.2022 08:28 9,6 C 8,9 C 5,6 C 93 % 998,5 hPa 0,0 l/m 0 min 2 min 0 W/m 45,1 km/h (6 Bft) 97,87 %
16.02.2022 08:30 9,6 C 8,9 C 5,6 C 94 % 998,5 hPa 0,0 l/m 0 min 2 min 3 W/m 25,7 km/h (4 Bft) 100,00 %
16.02.2022 08:32 9,6 C 8,3 C 5,6 C 94 % 998,5 hPa 0,0 l/m 0 min 2 min 6 W/m 32,2 km/h (5 Bft) 100,00 %
16.02.2022 08:34 9,6 C 8,9 C 5,6 C 94 % 998,5 hPa 0,0 l/m 0 min 2 min 7 W/m 35,4 km/h (5 Bft) 100,00 %
16.02.2022 08:36 9,6 C 8,9 C 5,6 C 94 % 998,3 hPa 0,0 l/m 0 min 2 min 7 W/m 35,4 km/h (5 Bft) 100,00 %
16.02.2022 08:38 9,6 C 8,9 C 5,6 C 94 % 998,4 hPa 0,0 l/m 0 min 2 min 10 W/m 25,7 km/h (4 Bft) 100,00 %
16.02.2022 08:40 9,6 C 8,9 C 5,6 C 94 % 998,5 hPa 0,0 l/m 0 min 2 min 13 W/m 29,0 km/h (5 Bft) 100,00 %
16.02.2022 08:42 9,6 C 8,9 C 5,6 C 94 % 998,4 hPa 0,0 l/m 0 min 2 min 12 W/m 35,4 km/h (5 Bft) 97,83 %
16.02.2022 08:44 9,6 C 8,9 C 5,6 C 94 % 998,4 hPa 0,0 l/m 0 min 0 min 13 W/m 32,2 km/h (5 Bft) 100,00 %
16.02.2022 08:46 9,6 C 8,9 C 5,6 C 94 % 998,4 hPa 0,0 l/m 0 min 0 min 12 W/m 25,7 km/h (4 Bft) 100,00 %
16.02.2022 08:48 9,6 C 8,9 C 5,6 C 94 % 998,5 hPa 0,0 l/m 0 min 0 min 16 W/m 32,2 km/h (5 Bft) 100,00 %
16.02.2022 08:50 9,6 C 8,9 C 5,6 C 94 % 998,3 hPa 0,0 l/m 0 min 2 min 16 W/m 41,8 km/h (6 Bft) 97,87 %
16.02.2022 08:52 9,7 C 8,9 C 5,6 C 94 % 998,2 hPa 0,0 l/m 0 min 0 min 19 W/m 29,0 km/h (5 Bft) 100,00 %
16.02.2022 08:54 9,7 C 8,9 C 5,6 C 94 % 998,2 hPa 0,0 l/m 0 min 0 min 21 W/m 45,1 km/h (6 Bft) 100,00 %
16.02.2022 08:56 9,7 C 8,9 C 5,6 C 94 % 998,3 hPa 0,0 l/m 0 min 0 min 20 W/m 29,0 km/h (5 Bft) 97,87 %
16.02.2022 08:58 9,8 C 9,4 C 5,6 C 94 % 998,3 hPa 0,0 l/m 0 min 0 min 21 W/m 41,8 km/h (6 Bft) 97,87 %
16.02.2022 09:00 9,8 C 9,4 C 5,6 C 93 % 998,2 hPa 0,0 l/m 0 min 0 min 17 W/m 29,0 km/h (5 Bft) 97,87 %
16.02.2022 09:02 9,8 C 9,4 C 5,6 C 93 % 998,3 hPa 0,0 l/m 0 min 0 min 15 W/m 54,7 km/h (7 Bft) 97,87 %
16.02.2022 09:04 9,9 C 9,4 C 5,6 C 93 % 998,2 hPa 0,0 l/m 0 min 2 min 25 W/m 41,8 km/h (6 Bft) 95,74 %
16.02.2022 09:06 9,9 C 9,4 C 6,1 C 93 % 998,2 hPa 0,0 l/m 0 min 2 min 40 W/m 32,2 km/h (5 Bft) 95,65 %
16.02.2022 09:08 9,9 C 9,4 C 6,1 C 93 % 998,2 hPa 0,0 l/m 0 min 2 min 50 W/m 38,6 km/h (5 Bft) 95,74 %
16.02.2022 09:10 9,9 C 9,4 C 6,1 C 93 % 998,2 hPa 0,0 l/m 0 min 2 min 48 W/m 29,0 km/h (5 Bft) 93,62 %
16.02.2022 09:12 9,9 C 8,9 C 6,1 C 93 % 998,3 hPa 0,0 l/m 0 min 2 min 33 W/m 29,0 km/h (5 Bft) 95,74 %
16.02.2022 09:14 9,9 C 8,9 C 6,1 C 93 % 998,3 hPa 0,0 l/m 0 min 2 min 29 W/m 51,5 km/h (7 Bft) 95,74 %
16.02.2022 09:16 9,9 C 8,9 C 6,1 C 93 % 998,5 hPa 0,0 l/m 0 min 2 min 20 W/m 35,4 km/h (5 Bft) 93,48 %
16.02.2022 09:18 9,9 C 8,9 C 6,1 C 93 % 998,4 hPa 0,0 l/m 0 min 2 min 17 W/m 41,8 km/h (6 Bft) 95,74 %
16.02.2022 09:20 9,9 C 8,9 C 6,1 C 94 % 998,2 hPa 0,0 l/m 0 min 2 min 17 W/m 48,3 km/h (6 Bft) 95,74 %
16.02.2022 09:22 9,9 C 8,9 C 6,1 C 94 % 998,2 hPa 0,2 l/m 0 min 2 min 22 W/m 35,4 km/h (5 Bft) 95,74 %
16.02.2022 09:24 9,9 C 8,3 C 6,1 C 94 % 998,2 hPa 0,0 l/m 0 min 2 min 29 W/m 41,8 km/h (6 Bft) 95,74 %
16.02.2022 09:26 9,8 C 8,9 C 6,1 C 94 % 998,1 hPa 0,0 l/m 0 min 2 min 33 W/m 48,3 km/h (6 Bft) 95,74 %
16.02.2022 09:28 9,9 C 8,9 C 6,1 C 94 % 998,1 hPa 0,0 l/m 0 min 2 min 34 W/m 45,1 km/h (6 Bft) 91,30 %
16.02.2022 09:30 9,8 C 8,9 C 6,1 C 94 % 998,2 hPa 0,0 l/m 0 min 2 min 40 W/m 32,2 km/h (5 Bft) 93,62 %
16.02.2022 09:32 9,8 C 8,9 C 6,1 C 94 % 998,2 hPa 0,0 l/m 0 min 0 min 37 W/m 22,5 km/h (4 Bft) 95,74 %
16.02.2022 09:34 9,8 C 8,9 C 6,1 C 94 % 998,2 hPa 0,0 l/m 0 min 2 min 25 W/m 29,0 km/h (5 Bft) 93,62 %
16.02.2022 09:36 9,8 C 8,9 C 6,1 C 94 % 998,2 hPa 0,0 l/m 0 min 0 min 32 W/m 25,7 km/h (4 Bft) 95,74 %
16.02.2022 09:38 9,8 C 8,9 C 6,1 C 94 % 998,2 hPa 0,0 l/m 0 min 0 min 43 W/m 19,3 km/h (3 Bft) 95,83 %
16.02.2022 09:40 9,8 C 8,9 C 6,1 C 94 % 998,2 hPa 0,0 l/m 0 min 0 min 46 W/m 29,0 km/h (5 Bft) 93,48 %
16.02.2022 09:42 9,9 C 8,9 C 6,1 C 95 % 998,2 hPa 0,0 l/m 0 min 0 min 32 W/m 38,6 km/h (5 Bft) 93,62 %
16.02.2022 09:44 9,9 C 8,9 C 6,1 C 95 % 998,1 hPa 0,0 l/m 0 min 0 min 41 W/m 22,5 km/h (4 Bft) 91,49 %
16.02.2022 09:46 9,9 C 8,9 C 6,1 C 95 % 998,3 hPa 0,0 l/m 0 min 0 min 56 W/m 51,5 km/h (7 Bft) 93,62 %
16.02.2022 09:48 9,9 C 9,4 C 6,1 C 95 % 998,3 hPa 0,0 l/m 0 min 2 min 53 W/m 48,3 km/h (6 Bft) 93,62 %
16.02.2022 09:50 9,9 C 9,4 C 6,1 C 95 % 998,3 hPa 0,0 l/m 0 min 2 min 61 W/m 35,4 km/h (5 Bft) 93,62 %
16.02.2022 09:52 9,9 C 9,4 C 6,1 C 95 % 998,3 hPa 0,0 l/m 0 min 0 min 76 W/m 29,0 km/h (5 Bft) 97,83 %
16.02.2022 09:54 10,0 C 9,4 C 6,1 C 95 % 998,3 hPa 0,0 l/m 0 min 2 min 37 W/m 25,7 km/h (4 Bft) 97,87 %
16.02.2022 09:56 10,0 C 9,4 C 6,1 C 95 % 998,4 hPa 0,0 l/m 0 min 2 min 26 W/m 25,7 km/h (4 Bft) 95,74 %
16.02.2022 09:58 10,0 C 9,4 C 6,1 C 95 % 998,5 hPa 0,0 l/m 0 min 2 min 29 W/m 38,6 km/h (5 Bft) 97,87 %
16.02.2022 10:00 10,1 C 9,4 C 6,7 C 95 % 998,3 hPa 0,0 l/m 0 min 2 min 33 W/m 32,2 km/h (5 Bft) 97,87 %
16.02.2022 10:02 10,1 C 9,4 C 6,7 C 95 % 998,3 hPa 0,0 l/m 0 min 2 min 26 W/m 48,3 km/h (6 Bft) 97,87 %
16.02.2022 10:04 10,1 C 9,4 C 6,7 C 95 % 998,5 hPa 0,0 l/m 0 min 2 min 24 W/m 41,8 km/h (6 Bft) 97,83 %
16.02.2022 10:06 10,1 C 9,4 C 6,7 C 95 % 998,6 hPa 0,0 l/m 0 min 2 min 31 W/m 54,7 km/h (7 Bft) 97,87 %
16.02.2022 10:08 10,1 C 9,4 C 6,7 C 95 % 998,5 hPa 0,0 l/m 0 min 2 min 39 W/m 32,2 km/h (5 Bft) 97,87 %
16.02.2022 10:10 10,1 C 9,4 C 6,7 C 95 % 998,5 hPa 0,0 l/m 0 min 2 min 51 W/m 35,4 km/h (5 Bft) 97,87 %
16.02.2022 10:12 10,1 C 9,4 C 6,7 C 95 % 998,6 hPa 0,0 l/m 0 min 2 min 54 W/m 35,4 km/h (5 Bft) 97,87 %
16.02.2022 10:14 10,1 C 9,4 C 6,7 C 95 % 998,6 hPa 0,0 l/m 0 min 2 min 46 W/m 25,7 km/h (4 Bft) 100,00 %
16.02.2022 10:16 10,1 C 9,4 C 6,7 C 95 % 998,6 hPa 0,0 l/m 0 min 2 min 40 W/m 38,6 km/h (5 Bft) 100,00 %
16.02.2022 10:18 10,1 C 9,4 C 6,7 C 95 % 998,6 hPa 0,0 l/m 0 min 2 min 40 W/m 32,2 km/h (5 Bft) 100,00 %
16.02.2022 10:20 10,1 C 9,4 C 6,7 C 95 % 998,6 hPa 0,0 l/m 0 min 2 min 45 W/m 35,4 km/h (5 Bft) 100,00 %
16.02.2022 10:22 10,1 C 9,4 C 6,7 C 95 % 998,6 hPa 0,0 l/m 0 min 2 min 40 W/m 38,6 km/h (5 Bft) 100,00 %
16.02.2022 10:24 10,1 C 9,4 C 6,7 C 95 % 998,6 hPa 0,0 l/m 0 min 2 min 39 W/m 35,4 km/h (5 Bft) 100,00 %
16.02.2022 10:26 10,1 C 9,4 C 6,7 C 95 % 998,6 hPa 0,0 l/m 0 min 2 min 41 W/m 38,6 km/h (5 Bft) 95,74 %
16.02.2022 10:28 10,1 C 9,4 C 6,7 C 95 % 998,6 hPa 0,0 l/m 0 min 2 min 55 W/m 19,3 km/h (3 Bft) 100,00 %
16.02.2022 10:30 10,1 C 9,4 C 6,7 C 96 % 998,6 hPa 0,0 l/m 0 min 2 min 94 W/m 25,7 km/h (4 Bft) 100,00 %
16.02.2022 10:32 10,1 C 9,4 C 6,7 C 96 % 998,6 hPa 0,0 l/m 0 min 2 min 108 W/m 29,0 km/h (5 Bft) 100,00 %
16.02.2022 10:34 10,1 C 9,4 C 6,7 C 96 % 998,5 hPa 0,0 l/m 0 min 2 min 98 W/m 25,7 km/h (4 Bft) 100,00 %
16.02.2022 10:36 10,1 C 9,4 C 6,7 C 96 % 998,7 hPa 0,0 l/m 0 min 2 min 77 W/m 25,7 km/h (4 Bft) 100,00 %
16.02.2022 10:38 10,1 C 9,4 C 6,7 C 96 % 998,6 hPa 0,0 l/m 0 min 2 min 48 W/m 25,7 km/h (4 Bft) 100,00 %
16.02.2022 10:40 10,2 C 9,4 C 6,7 C 96 % 998,6 hPa 0,0 l/m 0 min 2 min 45 W/m 19,3 km/h (3 Bft) 100,00 %
16.02.2022 10:42 10,2 C 9,4 C 6,7 C 96 % 998,5 hPa 0,0 l/m 0 min 2 min 63 W/m 16,1 km/h (3 Bft) 100,00 %
16.02.2022 10:44 10,2 C 9,4 C 6,7 C 96 % 998,5 hPa 0,0 l/m 0 min 2 min 88 W/m 29,0 km/h (5 Bft) 100,00 %
16.02.2022 10:46 10,2 C 9,4 C 6,7 C 96 % 998,5 hPa 0,0 l/m 0 min 2 min 92 W/m 25,7 km/h (4 Bft) 100,00 %
16.02.2022 10:48 10,2 C 9,4 C 7,2 C 96 % 998,6 hPa 0,0 l/m 0 min 2 min 73 W/m 22,5 km/h (4 Bft) 97,87 %
16.02.2022 10:50 10,2 C 9,4 C 6,7 C 96 % 998,7 hPa 0,0 l/m 0 min 2 min 54 W/m 29,0 km/h (5 Bft) 97,83 %
16.02.2022 10:52 10,2 C 9,4 C 7,2 C 97 % 998,7 hPa 0,0 l/m 0 min 2 min 62 W/m 29,0 km/h (5 Bft) 100,00 %
16.02.2022 10:54 10,3 C 9,4 C 7,2 C 97 % 998,6 hPa 0,0 l/m 0 min 2 min 62 W/m 25,7 km/h (4 Bft) 100,00 %
16.02.2022 10:56 10,3 C 9,4 C 7,2 C 97 % 998,7 hPa 0,0 l/m 0 min 2 min 64 W/m 32,2 km/h (5 Bft) 100,00 %
16.02.2022 10:58 10,3 C 9,4 C 7,2 C 97 % 998,7 hPa 0,0 l/m 0 min 2 min 79 W/m 29,0 km/h (5 Bft) 100,00 %
16.02.2022 11:00 10,3 C 9,4 C 7,2 C 97 % 998,7 hPa 0,0 l/m 0 min 2 min 68 W/m 35,4 km/h (5 Bft) 100,00 %
16.02.2022 11:02 10,3 C 9,4 C 7,2 C 97 % 998,7 hPa 0,0 l/m 0 min 0 min 65 W/m 19,3 km/h (3 Bft) 100,00 %
16.02.2022 11:04 10,3 C 9,4 C 7,2 C 97 % 998,8 hPa 0,0 l/m 0 min 0 min 74 W/m 22,5 km/h (4 Bft) 100,00 %
16.02.2022 11:06 10,3 C 10,0 C 7,2 C 97 % 998,8 hPa 0,0 l/m 0 min 0 min 78 W/m 29,0 km/h (5 Bft) 97,87 %
16.02.2022 11:08 10,3 C 10,0 C 7,2 C 97 % 998,7 hPa 0,0 l/m 0 min 0 min 88 W/m 25,7 km/h (4 Bft) 100,00 %
16.02.2022 11:10 10,4 C 10,0 C 7,2 C 97 % 998,7 hPa 0,0 l/m 0 min 0 min 90 W/m 29,0 km/h (5 Bft) 97,87 %
16.02.2022 11:12 10,4 C 10,0 C 7,2 C 97 % 998,7 hPa 0,0 l/m 0 min 0 min 87 W/m 29,0 km/h (5 Bft) 100,00 %
16.02.2022 11:14 10,4 C 10,0 C 7,2 C 97 % 998,6 hPa 0,0 l/m 0 min 0 min 89 W/m 35,4 km/h (5 Bft) 100,00 %
16.02.2022 11:16 10,4 C 10,0 C 7,2 C 97 % 998,6 hPa 0,0 l/m 0 min 2 min 104 W/m 29,0 km/h (5 Bft) 100,00 %
16.02.2022 11:18 10,4 C 10,0 C 7,2 C 97 % 998,7 hPa 0,0 l/m 0 min 2 min 100 W/m 25,7 km/h (4 Bft) 100,00 %
16.02.2022 11:20 10,5 C 10,0 C 7,2 C 97 % 998,7 hPa 0,0 l/m 0 min 2 min 108 W/m 29,0 km/h (5 Bft) 100,00 %
16.02.2022 11:22 10,5 C 10,0 C 7,2 C 97 % 998,7 hPa 0,0 l/m 0 min 0 min 100 W/m 35,4 km/h (5 Bft) 100,00 %
16.02.2022 11:24 10,6 C 10,0 C 7,2 C 97 % 998,8 hPa 0,0 l/m 0 min 2 min 93 W/m 25,7 km/h (4 Bft) 97,87 %
16.02.2022 11:26 10,6 C 10,0 C 7,2 C 97 % 998,8 hPa 0,0 l/m 0 min 2 min 92 W/m 35,4 km/h (5 Bft) 100,00 %
16.02.2022 11:28 10,6 C 10,0 C 7,2 C 97 % 998,8 hPa 0,0 l/m 0 min 2 min 84 W/m 38,6 km/h (5 Bft) 100,00 %
16.02.2022 11:30 10,6 C 10,0 C 7,2 C 97 % 998,8 hPa 0,0 l/m 0 min 2 min 85 W/m 22,5 km/h (4 Bft) 100,00 %
16.02.2022 11:32 10,6 C 10,0 C 7,2 C 97 % 998,7 hPa 0,0 l/m 0 min 2 min 83 W/m 32,2 km/h (5 Bft) 100,00 %
16.02.2022 11:34 10,6 C 10,0 C 7,2 C 97 % 998,9 hPa 0,0 l/m 0 min 2 min 92 W/m 25,7 km/h (4 Bft) 97,14 %
16.02.2022 11:36 10,6 C 10,0 C 7,2 C 97 % 998,8 hPa 0,0 l/m 0 min 2 min 89 W/m 16,1 km/h (3 Bft) 96,61 %
16.02.2022 11:38 10,6 C 10,0 C 7,2 C 97 % 998,8 hPa 0,0 l/m 0 min 2 min 87 W/m 16,1 km/h (3 Bft) 100,00 %
16.02.2022 11:40 10,6 C 10,0 C 7,2 C 97 % 998,8 hPa 0,0 l/m 0 min 2 min 92 W/m 16,1 km/h (3 Bft) 97,87 %
16.02.2022 11:42 10,7 C 10,0 C 7,8 C 97 % 998,8 hPa 0,0 l/m 0 min 2 min 102 W/m 35,4 km/h (5 Bft) 97,14 %
16.02.2022 11:44 10,7 C 10,0 C 7,8 C 97 % 998,9 hPa 0,0 l/m 0 min 2 min 89 W/m 16,1 km/h (3 Bft) 95,74 %
16.02.2022 11:46 10,7 C 10,0 C 7,8 C 97 % 998,9 hPa 0,0 l/m 0 min 2 min 96 W/m 32,2 km/h (5 Bft) 93,62 %
16.02.2022 11:48 10,7 C 10,0 C 7,8 C 97 % 998,8 hPa 0,0 l/m 0 min 2 min 94 W/m 16,1 km/h (3 Bft) 96,61 %
16.02.2022 11:50 10,7 C 10,0 C 7,8 C 97 % 998,8 hPa 0,0 l/m 0 min 2 min 102 W/m 19,3 km/h (3 Bft) 95,65 %
16.02.2022 11:52 10,8 C 10,0 C 7,8 C 97 % 998,9 hPa 0,0 l/m 0 min 0 min 113 W/m 25,7 km/h (4 Bft) 95,74 %
16.02.2022 11:54 10,8 C 10,0 C 7,8 C 97 % 998,8 hPa 0,0 l/m 0 min 0 min 101 W/m 19,3 km/h (3 Bft) 93,62 %
16.02.2022 11:56 10,8 C 10,0 C 7,8 C 97 % 998,7 hPa 0,0 l/m 0 min 0 min 104 W/m 22,5 km/h (4 Bft) 91,49 %
16.02.2022 11:58 10,8 C 10,0 C 7,8 C 97 % 998,7 hPa 0,0 l/m 0 min 0 min 89 W/m 22,5 km/h (4 Bft) 93,62 %
16.02.2022 12:00 10,8 C 10,0 C 7,8 C 97 % 998,8 hPa 0,0 l/m 0 min 0 min 83 W/m 32,2 km/h (5 Bft) 93,62 %
16.02.2022 12:02 10,8 C 10,6 C 7,8 C 97 % 998,8 hPa 0,0 l/m 0 min 2 min 116 W/m 16,1 km/h (3 Bft) 93,48 %
16.02.2022 12:04 10,9 C 10,6 C 7,8 C 97 % 998,7 hPa 0,0 l/m 0 min 0 min 130 W/m 25,7 km/h (4 Bft) 91,49 %
16.02.2022 12:06 10,9 C 10,6 C 7,8 C 97 % 998,8 hPa 0,0 l/m 0 min 2 min 131 W/m 25,7 km/h (4 Bft) 93,62 %
16.02.2022 12:08 10,9 C 10,6 C 7,8 C 97 % 998,7 hPa 0,0 l/m 0 min 0 min 132 W/m 19,3 km/h (3 Bft) 93,62 %
16.02.2022 12:10 11,0 C 10,6 C 7,8 C 98 % 998,7 hPa 0,0 l/m 0 min 0 min 127 W/m 29,0 km/h (5 Bft) 93,62 %
16.02.2022 12:12 11,0 C 10,6 C 7,8 C 98 % 998,7 hPa 0,0 l/m 0 min 2 min 176 W/m 22,5 km/h (4 Bft) 93,62 %
16.02.2022 12:14 11,1 C 10,6 C 8,3 C 98 % 998,6 hPa 0,0 l/m 0 min 2 min 129 W/m 16,1 km/h (3 Bft) 95,65 %
16.02.2022 12:16 11,1 C 10,6 C 8,3 C 98 % 998,6 hPa 0,0 l/m 0 min 2 min 112 W/m 32,2 km/h (5 Bft) 97,87 %
16.02.2022 12:18 11,1 C 10,6 C 8,3 C 98 % 998,5 hPa 0,0 l/m 0 min 2 min 109 W/m 19,3 km/h (3 Bft) 95,74 %
16.02.2022 12:20 11,1 C 10,6 C 8,3 C 98 % 998,5 hPa 0,0 l/m 0 min 2 min 112 W/m 22,5 km/h (4 Bft) 93,62 %
16.02.2022 12:22 11,2 C 10,6 C 8,3 C 98 % 998,4 hPa 0,0 l/m 0 min 0 min 147 W/m 25,7 km/h (4 Bft) 93,62 %
16.02.2022 12:24 11,2 C 10,6 C 8,3 C 98 % 998,3 hPa 0,0 l/m 0 min 0 min 141 W/m 22,5 km/h (4 Bft) 95,74 %
16.02.2022 12:26 11,2 C 11,1 C 8,3 C 98 % 998,3 hPa 0,0 l/m 0 min 0 min 144 W/m 22,5 km/h (4 Bft) 95,65 %
16.02.2022 12:28 11,2 C 11,1 C 8,3 C 98 % 998,2 hPa 0,0 l/m 0 min 0 min 156 W/m 35,4 km/h (5 Bft) 91,49 %
16.02.2022 12:30 11,3 C 11,1 C 8,3 C 98 % 998,3 hPa 0,0 l/m 0 min 0 min 155 W/m 25,7 km/h (4 Bft) 95,74 %
16.02.2022 12:32 11,3 C 11,1 C 8,3 C 98 % 998,2 hPa 0,0 l/m 0 min 0 min 152 W/m 32,2 km/h (5 Bft) 95,74 %
16.02.2022 12:34 11,4 C 11,1 C 8,3 C 98 % 998,2 hPa 0,0 l/m 0 min 0 min 132 W/m 29,0 km/h (5 Bft) 95,74 %
16.02.2022 12:36 11,4 C 11,1 C 8,3 C 98 % 998,2 hPa 0,0 l/m 0 min 0 min 131 W/m 22,5 km/h (4 Bft) 95,74 %
16.02.2022 12:38 11,5 C 11,1 C 8,9 C 98 % 998,1 hPa 0,0 l/m 0 min 0 min 127 W/m 22,5 km/h (4 Bft) 95,65 %
16.02.2022 12:40 11,6 C 11,1 C 8,9 C 98 % 998,2 hPa 0,0 l/m 0 min 0 min 127 W/m 22,5 km/h (4 Bft) 97,87 %
16.02.2022 12:42 11,6 C 11,1 C 8,9 C 98 % 998,2 hPa 0,0 l/m 0 min 0 min 105 W/m 45,1 km/h (6 Bft) 100,00 %
16.02.2022 12:44 11,6 C 11,1 C 8,9 C 98 % 998,2 hPa 0,0 l/m 0 min 0 min 91 W/m 25,7 km/h (4 Bft) 100,00 %
16.02.2022 12:46 11,6 C 11,1 C 8,9 C 98 % 998,2 hPa 0,0 l/m 0 min 0 min 99 W/m 12,9 km/h (3 Bft) 93,62 %
16.02.2022 12:48 11,6 C 11,1 C 8,9 C 98 % 998,2 hPa 0,0 l/m 0 min 0 min 85 W/m 25,7 km/h (4 Bft) 100,00 %
16.02.2022 12:50 11,7 C 11,1 C 8,9 C 97 % 998,3 hPa 0,0 l/m 0 min 0 min 82 W/m 22,5 km/h (4 Bft) 100,00 %
16.02.2022 12:52 11,7 C 11,1 C 8,9 C 98 % 998,3 hPa 0,0 l/m 0 min 0 min 69 W/m 51,5 km/h (7 Bft) 100,00 %
16.02.2022 12:54 11,7 C 11,1 C 8,9 C 98 % 998,1 hPa 0,0 l/m 0 min 0 min 74 W/m 25,7 km/h (4 Bft) 100,00 %
16.02.2022 12:56 11,7 C 11,1 C 8,9 C 97 % 998,1 hPa 0,0 l/m 0 min 0 min 83 W/m 29,0 km/h (5 Bft) 100,00 %
16.02.2022 12:58 11,7 C 11,1 C 8,9 C 97 % 998,0 hPa 0,0 l/m 0 min 0 min 71 W/m 22,5 km/h (4 Bft) 100,00 %
16.02.2022 13:00 11,7 C 11,1 C 8,9 C 97 % 998,0 hPa 0,0 l/m 0 min 0 min 83 W/m 38,6 km/h (5 Bft) 100,00 %
16.02.2022 13:02 11,8 C 11,1 C 8,9 C 97 % 997,9 hPa 0,0 l/m 0 min 0 min 83 W/m 35,4 km/h (5 Bft) 100,00 %
16.02.2022 13:04 11,8 C 11,1 C 8,9 C 97 % 998,0 hPa 0,0 l/m 0 min 0 min 91 W/m 29,0 km/h (5 Bft) 100,00 %
16.02.2022 13:06 11,8 C 11,1 C 8,9 C 97 % 997,8 hPa 0,0 l/m 0 min 2 min 85 W/m 35,4 km/h (5 Bft) 100,00 %
16.02.2022 13:08 11,8 C 11,1 C 8,9 C 97 % 998,3 hPa 0,0 l/m 0 min 2 min 89 W/m 35,4 km/h (5 Bft) 100,00 %
16.02.2022 13:10 11,8 C 11,1 C 8,9 C 97 % 997,9 hPa 0,0 l/m 0 min 2 min 98 W/m 32,2 km/h (5 Bft) 98,31 %
16.02.2022 13:12 11,8 C 11,1 C 8,9 C 97 % 997,9 hPa 0,0 l/m 0 min 0 min 121 W/m 19,3 km/h (3 Bft) 100,00 %
16.02.2022 13:14 11,8 C 11,7 C 8,9 C 97 % 997,9 hPa 0,0 l/m 0 min 0 min 145 W/m 25,7 km/h (4 Bft) 100,00 %
16.02.2022 13:16 11,8 C 11,7 C 8,9 C 97 % 997,8 hPa 0,0 l/m 0 min 0 min 156 W/m 29,0 km/h (5 Bft) 100,00 %
16.02.2022 13:18 11,9 C 11,7 C 8,9 C 97 % 997,8 hPa 0,0 l/m 0 min 0 min 170 W/m 29,0 km/h (5 Bft) 100,00 %
16.02.2022 13:20 12,0 C 12,2 C 9,4 C 97 % 997,8 hPa 0,0 l/m 0 min 0 min 163 W/m 22,5 km/h (4 Bft) 97,87 %
16.02.2022 13:22 12,1 C 12,2 C 9,4 C 97 % 997,9 hPa 0,0 l/m 0 min 0 min 142 W/m 32,2 km/h (5 Bft) 100,00 %
16.02.2022 13:24 12,1 C 12,2 C 9,4 C 97 % 998,0 hPa 0,0 l/m 0 min 0 min 135 W/m 22,5 km/h (4 Bft) 100,00 %
16.02.2022 13:26 12,2 C 12,2 C 9,4 C 97 % 997,9 hPa 0,0 l/m 0 min 0 min 118 W/m 25,7 km/h (4 Bft) 97,83 %
16.02.2022 13:28 12,2 C 12,2 C 9,4 C 96 % 997,9 hPa 0,0 l/m 0 min 0 min 138 W/m 32,2 km/h (5 Bft) 97,22 %
16.02.2022 13:30 12,2 C 12,2 C 9,4 C 96 % 997,9 hPa 0,0 l/m 0 min 0 min 131 W/m 25,7 km/h (4 Bft) 100,00 %
16.02.2022 13:32 12,2 C 12,2 C 9,4 C 96 % 997,9 hPa 0,0 l/m 0 min 0 min 128 W/m 32,2 km/h (5 Bft) 100,00 %
16.02.2022 13:34 12,2 C 12,2 C 9,4 C 96 % 997,9 hPa 0,0 l/m 0 min 0 min 142 W/m 35,4 km/h (5 Bft) 100,00 %
16.02.2022 13:36 12,3 C 12,2 C 9,4 C 96 % 997,8 hPa 0,0 l/m 0 min 0 min 143 W/m 25,7 km/h (4 Bft) 100,00 %
16.02.2022 13:38 12,3 C 12,2 C 9,4 C 96 % 997,8 hPa 0,0 l/m 0 min 0 min 138 W/m 22,5 km/h (4 Bft) 97,87 %
16.02.2022 13:40 12,3 C 12,2 C 9,4 C 96 % 997,8 hPa 0,0 l/m 0 min 0 min 144 W/m 51,5 km/h (7 Bft) 97,87 %
16.02.2022 13:42 12,3 C 12,2 C 9,4 C 95 % 997,8 hPa 0,0 l/m 0 min 0 min 128 W/m 19,3 km/h (3 Bft) 97,14 %
16.02.2022 13:44 12,4 C 12,2 C 9,4 C 95 % 997,8 hPa 0,0 l/m 0 min 0 min 117 W/m 22,5 km/h (4 Bft) 97,87 %
16.02.2022 13:46 12,4 C 12,2 C 9,4 C 95 % 997,7 hPa 0,0 l/m 0 min 0 min 89 W/m 32,2 km/h (5 Bft) 97,87 %
16.02.2022 13:48 12,4 C 12,2 C 9,4 C 95 % 997,6 hPa 0,0 l/m 0 min 0 min 97 W/m 29,0 km/h (5 Bft) 97,87 %
16.02.2022 13:50 12,4 C 12,2 C 9,4 C 95 % 997,6 hPa 0,0 l/m 0 min 0 min 91 W/m 25,7 km/h (4 Bft) 97,87 %
16.02.2022 13:52 12,5 C 12,2 C 9,4 C 95 % 997,5 hPa 0,0 l/m 0 min 0 min 116 W/m 19,3 km/h (3 Bft) 100,00 %
16.02.2022 13:55 12,5 C 12,2 C 9,4 C 94 % 997,5 hPa 0,0 l/m 0 min 0 min 112 W/m 41,8 km/h (6 Bft) 100,00 %
16.02.2022 14:00 12,6 C 12,2 C 9,4 C 94 % 997,6 hPa 0,0 l/m 0 min 0 min 89 W/m 38,6 km/h (5 Bft) 100,00 %
16.02.2022 14:05 12,6 C 12,2 C 9,4 C 94 % 997,6 hPa 0,0 l/m 0 min 0 min 84 W/m 41,8 km/h (6 Bft) 100,00 %
16.02.2022 14:10 12,6 C 12,2 C 9,4 C 93 % 997,7 hPa 0,0 l/m 0 min 0 min 61 W/m 32,2 km/h (5 Bft) 100,00 %
16.02.2022 14:15 12,6 C 12,2 C 9,4 C 93 % 997,7 hPa 0,0 l/m 0 min 0 min 56 W/m 38,6 km/h (5 Bft) 100,00 %
16.02.2022 14:20 12,6 C 12,2 C 9,4 C 93 % 997,6 hPa 0,0 l/m 0 min 0 min 51 W/m 45,1 km/h (6 Bft) 100,00 %
16.02.2022 14:25 12,6 C 12,2 C 9,4 C 92 % 997,7 hPa 0,0 l/m 0 min 0 min 45 W/m 25,7 km/h (4 Bft) 100,00 %
16.02.2022 14:30 12,6 C 11,7 C 9,4 C 92 % 997,7 hPa 0,0 l/m 0 min 0 min 33 W/m 32,2 km/h (5 Bft) 100,00 %
16.02.2022 14:35 12,5 C 11,7 C 8,9 C 92 % 997,6 hPa 0,0 l/m 0 min 0 min 33 W/m 48,3 km/h (6 Bft) 100,00 %
16.02.2022 14:40 12,4 C 11,7 C 8,9 C 92 % 997,5 hPa 0,0 l/m 0 min 0 min 30 W/m 38,6 km/h (5 Bft) 99,12 %
16.02.2022 14:45 12,4 C 11,7 C 8,9 C 92 % 997,7 hPa 0,0 l/m 0 min 0 min 39 W/m 29,0 km/h (5 Bft) 97,37 %
16.02.2022 14:50 12,4 C 12,2 C 9,4 C 92 % 997,8 hPa 0,0 l/m 0 min 0 min 72 W/m 32,2 km/h (5 Bft) 98,25 %
16.02.2022 14:55 12,5 C 12,2 C 9,4 C 91 % 997,8 hPa 0,0 l/m 0 min 0 min 56 W/m 22,5 km/h (4 Bft) 97,37 %
16.02.2022 15:00 12,6 C 12,2 C 9,4 C 91 % 997,9 hPa 0,0 l/m 0 min 0 min 33 W/m 25,7 km/h (4 Bft) 96,49 %
16.02.2022 15:05 12,6 C 11,7 C 9,4 C 91 % 997,9 hPa 0,0 l/m 0 min 0 min 38 W/m 32,2 km/h (5 Bft) 96,49 %
16.02.2022 15:10 12,6 C 12,2 C 9,4 C 91 % 997,8 hPa 0,0 l/m 0 min 0 min 58 W/m 29,0 km/h (5 Bft) 97,37 %
16.02.2022 15:15 12,6 C 12,2 C 9,4 C 91 % 997,7 hPa 0,0 l/m 0 min 0 min 71 W/m 41,8 km/h (6 Bft) 96,49 %
16.02.2022 15:20 12,6 C 12,2 C 9,4 C 91 % 997,9 hPa 0,0 l/m 0 min 0 min 47 W/m 22,5 km/h (4 Bft) 98,25 %
16.02.2022 15:25 12,6 C 12,2 C 9,4 C 91 % 997,7 hPa 0,0 l/m 0 min 0 min 58 W/m 29,0 km/h (5 Bft) 95,61 %
16.02.2022 15:30 12,6 C 12,2 C 9,4 C 90 % 997,5 hPa 0,0 l/m 0 min 0 min 61 W/m 35,4 km/h (5 Bft) 100,00 %
16.02.2022 15:35 12,6 C 12,2 C 9,4 C 90 % 997,7 hPa 0,0 l/m 0 min 0 min 48 W/m 29,0 km/h (5 Bft) 100,00 %
16.02.2022 15:40 12,7 C 12,2 C 9,4 C 90 % 997,7 hPa 0,0 l/m 0 min 0 min 35 W/m 35,4 km/h (5 Bft) 100,00 %
16.02.2022 15:45 12,7 C 12,2 C 9,4 C 90 % 997,5 hPa 0,0 l/m 0 min 0 min 55 W/m 29,0 km/h (5 Bft) 100,00 %
16.02.2022 15:50 12,7 C 12,2 C 9,4 C 90 % 997,2 hPa 0,0 l/m 0 min 0 min 61 W/m 32,2 km/h (5 Bft) 100,00 %
16.02.2022 15:55 12,7 C 12,2 C 9,4 C 89 % 997,1 hPa 0,0 l/m 0 min 0 min 49 W/m 29,0 km/h (5 Bft) 100,00 %
16.02.2022 16:00 12,7 C 12,2 C 9,4 C 89 % 997,3 hPa 0,0 l/m 0 min 0 min 52 W/m 32,2 km/h (5 Bft) 100,00 %
16.02.2022 16:05 12,7 C 12,2 C 9,4 C 89 % 997,2 hPa 0,0 l/m 0 min 0 min 49 W/m 25,7 km/h (4 Bft) 100,00 %
16.02.2022 16:10 12,7 C 12,2 C 9,4 C 88 % 997,1 hPa 0,0 l/m 0 min 0 min 49 W/m 25,7 km/h (4 Bft) 98,25 %
16.02.2022 16:15 12,8 C 12,2 C 9,4 C 87 % 997,0 hPa 0,0 l/m 0 min 0 min 55 W/m 32,2 km/h (5 Bft) 100,00 %
16.02.2022 16:20 12,8 C 12,2 C 9,4 C 87 % 997,0 hPa 0,0 l/m 0 min 0 min 49 W/m 35,4 km/h (5 Bft) 100,00 %
16.02.2022 16:25 12,9 C 12,2 C 9,4 C 86 % 997,0 hPa 0,0 l/m 0 min 0 min 44 W/m 22,5 km/h (4 Bft) 79,82 %
16.02.2022 16:30 12,9 C 12,2 C 9,4 C 86 % 997,2 hPa 0,0 l/m 0 min 0 min 28 W/m 32,2 km/h (5 Bft) 100,00 %
16.02.2022 16:35 12,9 C 12,2 C 9,4 C 85 % 997,2 hPa 0,0 l/m 0 min 0 min 27 W/m 38,6 km/h (5 Bft) 100,00 %
16.02.2022 16:40 12,9 C 12,2 C 9,4 C 85 % 997,2 hPa 0,0 l/m 0 min 0 min 32 W/m 35,4 km/h (5 Bft) 100,00 %
16.02.2022 16:45 12,9 C 12,2 C 9,4 C 86 % 997,9 hPa 0,0 l/m 0 min 0 min 26 W/m 29,0 km/h (5 Bft) 100,00 %
16.02.2022 16:50 12,9 C 12,2 C 9,4 C 85 % 998,0 hPa 0,0 l/m 0 min 0 min 27 W/m 35,4 km/h (5 Bft) 100,00 %
16.02.2022 16:55 12,9 C 12,2 C 9,4 C 85 % 997,9 hPa 0,0 l/m 0 min 0 min 26 W/m 25,7 km/h (4 Bft) 100,00 %
16.02.2022 17:00 12,9 C 12,2 C 9,4 C 86 % 997,6 hPa 0,0 l/m 0 min 0 min 33 W/m 25,7 km/h (4 Bft) 100,00 %
16.02.2022 17:05 12,9 C 12,2 C 9,4 C 85 % 997,4 hPa 0,0 l/m 0 min 0 min 24 W/m 32,2 km/h (5 Bft) 100,00 %
16.02.2022 17:10 12,9 C 12,2 C 8,9 C 86 % 997,3 hPa 0,0 l/m 0 min 5 min 20 W/m 29,0 km/h (5 Bft) 100,00 %
16.02.2022 17:15 12,8 C 12,2 C 8,3 C 86 % 997,3 hPa 0,0 l/m 0 min 5 min 20 W/m 22,5 km/h (4 Bft) 100,00 %
16.02.2022 17:20 12,8 C 12,2 C 8,3 C 86 % 997,2 hPa 0,0 l/m 0 min 5 min 19 W/m 29,0 km/h (5 Bft) 100,00 %
16.02.2022 17:25 12,8 C 12,2 C 8,9 C 86 % 997,0 hPa 0,0 l/m 0 min 5 min 11 W/m 22,5 km/h (4 Bft) 99,12 %
16.02.2022 17:30 12,8 C 12,2 C 8,9 C 86 % 996,9 hPa 0,0 l/m 0 min 5 min 6 W/m 45,1 km/h (6 Bft) 97,37 %
16.02.2022 17:35 12,7 C 11,7 C 8,9 C 86 % 996,7 hPa 0,0 l/m 0 min 0 min 5 W/m 25,7 km/h (4 Bft) 97,37 %
16.02.2022 17:40 12,6 C 11,7 C 8,9 C 87 % 996,7 hPa 0,0 l/m 0 min 5 min 0 W/m 29,0 km/h (5 Bft) 98,25 %
16.02.2022 17:45 12,4 C 11,7 C 8,3 C 88 % 996,5 hPa 0,0 l/m 0 min 5 min 0 W/m 25,7 km/h (4 Bft) 96,49 %
16.02.2022 17:50 12,3 C 11,1 C 7,8 C 89 % 996,4 hPa 0,0 l/m 0 min 5 min 0 W/m 35,4 km/h (5 Bft) 93,86 %
16.02.2022 17:55 12,1 C 10,6 C 7,8 C 91 % 996,3 hPa 0,0 l/m 0 min 5 min 0 W/m 25,7 km/h (4 Bft) 97,37 %
16.02.2022 18:00 11,9 C 10,6 C 7,8 C 92 % 996,3 hPa 0,2 l/m 0 min 5 min 0 W/m 35,4 km/h (5 Bft) 94,74 %
16.02.2022 18:05 11,8 C 10,6 C 7,8 C 93 % 996,1 hPa 0,0 l/m 0 min 5 min 0 W/m 29,0 km/h (5 Bft) 94,74 %
16.02.2022 18:10 11,7 C 10,6 C 7,8 C 94 % 996,0 hPa 0,0 l/m 0 min 5 min 0 W/m 35,4 km/h (5 Bft) 97,37 %
16.02.2022 18:15 11,7 C 10,6 C 7,8 C 94 % 995,9 hPa 0,0 l/m 0 min 5 min 0 W/m 29,0 km/h (5 Bft) 99,12 %
16.02.2022 18:20 11,7 C 10,6 C 7,8 C 95 % 995,9 hPa 0,0 l/m 0 min 5 min 0 W/m 51,5 km/h (7 Bft) 100,00 %
16.02.2022 18:25 11,6 C 10,6 C 7,8 C 95 % 995,9 hPa 0,0 l/m 0 min 5 min 0 W/m 41,8 km/h (6 Bft) 100,00 %
16.02.2022 18:30 11,6 C 10,6 C 7,8 C 95 % 995,9 hPa 0,2 l/m 0 min 5 min 0 W/m 45,1 km/h (6 Bft) 100,00 %
16.02.2022 18:35 11,6 C 10,6 C 7,8 C 96 % 995,8 hPa 0,0 l/m 0 min 5 min 0 W/m 38,6 km/h (5 Bft) 100,00 %
16.02.2022 18:40 11,6 C 10,6 C 7,8 C 96 % 995,7 hPa 0,0 l/m 0 min 5 min 0 W/m 35,4 km/h (5 Bft) 100,00 %
16.02.2022 18:45 11,6 C 10,6 C 7,8 C 96 % 995,7 hPa 0,0 l/m 0 min 5 min 0 W/m 38,6 km/h (5 Bft) 100,00 %
16.02.2022 18:50 11,6 C 10,6 C 7,8 C 97 % 995,6 hPa 0,2 l/m 0 min 5 min 0 W/m 48,3 km/h (6 Bft) 100,00 %
16.02.2022 18:55 11,6 C 10,6 C 7,8 C 97 % 995,5 hPa 0,2 l/m 0 min 5 min 0 W/m 45,1 km/h (6 Bft) 78,95 %
16.02.2022 19:00 11,6 C 10,6 C 7,8 C 97 % 995,5 hPa 0,0 l/m 0 min 5 min 0 W/m 51,5 km/h (7 Bft) 100,00 %
16.02.2022 19:05 11,7 C 10,6 C 8,3 C 97 % 995,3 hPa 0,0 l/m 0 min 5 min 0 W/m 41,8 km/h (6 Bft) 100,00 %
16.02.2022 19:10 11,7 C 10,6 C 8,3 C 97 % 995,3 hPa 0,2 l/m 0 min 5 min 0 W/m 51,5 km/h (7 Bft) 100,00 %
16.02.2022 19:15 11,8 C 10,6 C 8,3 C 97 % 995,1 hPa 0,0 l/m 0 min 5 min 0 W/m 51,5 km/h (7 Bft) 100,00 %
16.02.2022 19:20 11,8 C 11,1 C 8,3 C 97 % 995,1 hPa 0,0 l/m 0 min 5 min 0 W/m 35,4 km/h (5 Bft) 100,00 %
16.02.2022 19:25 11,9 C 11,1 C 8,3 C 97 % 995,1 hPa 0,0 l/m 0 min 5 min 0 W/m 41,8 km/h (6 Bft) 100,00 %
16.02.2022 19:30 11,9 C 10,6 C 8,3 C 97 % 995,1 hPa 0,4 l/m 0 min 5 min 0 W/m 32,2 km/h (5 Bft) 100,00 %
16.02.2022 19:35 12,0 C 10,6 C 8,3 C 97 % 995,0 hPa 0,2 l/m 0 min 5 min 0 W/m 45,1 km/h (6 Bft) 100,00 %
16.02.2022 19:40 12,1 C 11,1 C 8,3 C 97 % 995,1 hPa 0,0 l/m 0 min 5 min 0 W/m 35,4 km/h (5 Bft) 100,00 %
16.02.2022 19:45 12,1 C 10,6 C 8,3 C 97 % 994,9 hPa 0,2 l/m 0 min 5 min 0 W/m 51,5 km/h (7 Bft) 98,25 %
16.02.2022 19:50 12,1 C 11,1 C 8,9 C 97 % 994,9 hPa 0,0 l/m 0 min 5 min 0 W/m 38,6 km/h (5 Bft) 100,00 %
16.02.2022 19:55 12,1 C 11,1 C 8,9 C 97 % 994,8 hPa 0,0 l/m 0 min 5 min 0 W/m 35,4 km/h (5 Bft) 100,00 %
16.02.2022 20:00 12,2 C 11,1 C 8,9 C 97 % 994,5 hPa 0,2 l/m 0 min 5 min 0 W/m 41,8 km/h (6 Bft) 100,00 %
16.02.2022 20:05 12,3 C 11,1 C 8,9 C 97 % 994,3 hPa 0,0 l/m 0 min 5 min 0 W/m 61,2 km/h (7 Bft) 100,00 %
16.02.2022 20:08 12,3 C 11,1 C 8,9 C 97 % 994,2 hPa 0,2 l/m 0 min 3 min 0 W/m 29,0 km/h (5 Bft) 97,48 %
16.02.2022 20:10 12,3 C 11,1 C 8,9 C 97 % 994,1 hPa 0,0 l/m 0 min 2 min 0 W/m 45,1 km/h (6 Bft) 96,77 %
16.02.2022 20:12 12,4 C 11,1 C 8,9 C 97 % 994,0 hPa 0,0 l/m 0 min 2 min 0 W/m 57,9 km/h (7 Bft) 93,62 %
16.02.2022 20:14 12,4 C 11,1 C 8,9 C 97 % 994,2 hPa 0,0 l/m 0 min 2 min 0 W/m 57,9 km/h (7 Bft) 97,87 %
16.02.2022 20:16 12,4 C 11,1 C 8,9 C 97 % 994,2 hPa 0,0 l/m 0 min 2 min 0 W/m 54,7 km/h (7 Bft) 97,87 %
16.02.2022 20:18 12,4 C 11,1 C 8,9 C 97 % 994,2 hPa 0,0 l/m 0 min 2 min 0 W/m 51,5 km/h (7 Bft) 95,74 %
16.02.2022 20:20 12,4 C 11,1 C 8,9 C 97 % 994,3 hPa 0,0 l/m 0 min 2 min 0 W/m 41,8 km/h (6 Bft) 93,62 %
16.02.2022 20:22 12,5 C 11,7 C 8,9 C 97 % 994,3 hPa 0,0 l/m 0 min 2 min 0 W/m 54,7 km/h (7 Bft) 95,65 %
16.02.2022 20:24 12,5 C 11,7 C 8,9 C 97 % 994,2 hPa 0,0 l/m 0 min 2 min 0 W/m 29,0 km/h (5 Bft) 95,74 %
16.02.2022 20:26 12,5 C 11,1 C 8,9 C 97 % 994,2 hPa 0,2 l/m 0 min 2 min 0 W/m 54,7 km/h (7 Bft) 93,62 %
16.02.2022 20:28 12,5 C 11,1 C 8,9 C 97 % 994,3 hPa 0,0 l/m 0 min 2 min 0 W/m 35,4 km/h (5 Bft) 95,74 %
16.02.2022 20:30 12,5 C 11,1 C 8,9 C 97 % 994,0 hPa 0,0 l/m 0 min 2 min 0 W/m 35,4 km/h (5 Bft) 95,74 %
16.02.2022 20:32 12,6 C 11,1 C 8,9 C 97 % 994,2 hPa 0,0 l/m 0 min 2 min 0 W/m 38,6 km/h (5 Bft) 93,48 %
16.02.2022 20:34 12,5 C 11,7 C 8,9 C 97 % 994,2 hPa 0,0 l/m 0 min 2 min 0 W/m 45,1 km/h (6 Bft) 95,74 %
16.02.2022 20:36 12,6 C 11,7 C 8,9 C 97 % 993,9 hPa 0,0 l/m 0 min 2 min 0 W/m 32,2 km/h (5 Bft) 95,74 %
16.02.2022 20:38 12,6 C 11,7 C 8,9 C 97 % 994,0 hPa 0,0 l/m 0 min 2 min 0 W/m 45,1 km/h (6 Bft) 95,74 %
16.02.2022 20:40 12,6 C 11,7 C 8,9 C 97 % 994,1 hPa 0,0 l/m 0 min 2 min 0 W/m 51,5 km/h (7 Bft) 95,74 %
16.02.2022 20:42 12,6 C 11,7 C 8,9 C 97 % 994,0 hPa 0,0 l/m 0 min 2 min 0 W/m 41,8 km/h (6 Bft) 95,74 %
16.02.2022 20:44 12,6 C 11,7 C 8,9 C 97 % 994,0 hPa 0,0 l/m 0 min 2 min 0 W/m 45,1 km/h (6 Bft) 93,48 %
16.02.2022 20:46 12,6 C 11,7 C 8,9 C 97 % 993,9 hPa 0,0 l/m 0 min 2 min 0 W/m 29,0 km/h (5 Bft) 95,74 %
16.02.2022 20:48 12,6 C 11,7 C 8,9 C 97 % 993,8 hPa 0,0 l/m 0 min 2 min 0 W/m 51,5 km/h (7 Bft) 95,74 %
16.02.2022 20:50 12,6 C 11,7 C 8,9 C 97 % 994,0 hPa 0,0 l/m 0 min 2 min 0 W/m 35,4 km/h (5 Bft) 95,74 %
16.02.2022 20:52 12,6 C 11,1 C 8,9 C 97 % 994,0 hPa 0,2 l/m 0 min 2 min 0 W/m 35,4 km/h (5 Bft) 95,74 %
16.02.2022 20:54 12,7 C 11,1 C 9,4 C 97 % 994,0 hPa 0,0 l/m 0 min 2 min 0 W/m 41,8 km/h (6 Bft) 95,74 %
16.02.2022 20:56 12,7 C 11,1 C 9,4 C 97 % 994,0 hPa 0,2 l/m 0 min 2 min 0 W/m 74,0 km/h (8 Bft) 95,65 %
16.02.2022 20:58 12,7 C 11,1 C 9,4 C 97 % 994,0 hPa 0,0 l/m 0 min 2 min 0 W/m 35,4 km/h (5 Bft) 97,87 %
16.02.2022 21:00 12,7 C 11,1 C 9,4 C 97 % 993,9 hPa 0,0 l/m 0 min 2 min 0 W/m 48,3 km/h (6 Bft) 97,87 %
16.02.2022 21:02 12,7 C 11,1 C 9,4 C 97 % 993,8 hPa 0,2 l/m 0 min 2 min 0 W/m 48,3 km/h (6 Bft) 93,62 %
16.02.2022 21:04 12,7 C 11,1 C 9,4 C 97 % 993,9 hPa 0,0 l/m 0 min 2 min 0 W/m 38,6 km/h (5 Bft) 100,00 %
16.02.2022 21:06 12,7 C 11,1 C 9,4 C 97 % 993,7 hPa 0,2 l/m 0 min 2 min 0 W/m 22,5 km/h (4 Bft) 100,00 %
16.02.2022 21:08 12,7 C 11,1 C 9,4 C 97 % 993,8 hPa 0,0 l/m 0 min 2 min 0 W/m 29,0 km/h (5 Bft) 97,83 %
16.02.2022 21:10 12,7 C 11,1 C 9,4 C 97 % 993,6 hPa 0,0 l/m 0 min 2 min 0 W/m 45,1 km/h (6 Bft) 97,87 %
16.02.2022 21:12 12,7 C 11,1 C 9,4 C 97 % 993,6 hPa 0,0 l/m 0 min 2 min 0 W/m 45,1 km/h (6 Bft) 100,00 %
16.02.2022 21:14 12,7 C 11,7 C 9,4 C 97 % 993,6 hPa 0,0 l/m 0 min 2 min 0 W/m 38,6 km/h (5 Bft) 100,00 %
16.02.2022 21:16 12,7 C 11,7 C 9,4 C 97 % 993,7 hPa 0,0 l/m 0 min 2 min 0 W/m 38,6 km/h (5 Bft) 100,00 %
16.02.2022 21:18 12,8 C 11,7 C 9,4 C 97 % 993,5 hPa 0,0 l/m 0 min 2 min 0 W/m 38,6 km/h (5 Bft) 97,87 %
16.02.2022 21:20 12,8 C 11,7 C 9,4 C 96 % 993,5 hPa 0,0 l/m 0 min 2 min 0 W/m 32,2 km/h (5 Bft) 100,00 %
16.02.2022 21:22 12,8 C 11,7 C 9,4 C 96 % 993,6 hPa 0,0 l/m 0 min 2 min 0 W/m 29,0 km/h (5 Bft) 100,00 %
16.02.2022 21:24 12,8 C 11,7 C 9,4 C 96 % 993,7 hPa 0,2 l/m 0 min 2 min 0 W/m 54,7 km/h (7 Bft) 100,00 %
16.02.2022 21:26 12,8 C 11,7 C 9,4 C 96 % 993,5 hPa 0,0 l/m 0 min 2 min 0 W/m 45,1 km/h (6 Bft) 97,87 %
16.02.2022 21:28 12,8 C 11,7 C 9,4 C 96 % 993,5 hPa 0,0 l/m 0 min 2 min 0 W/m 25,7 km/h (4 Bft) 100,00 %
16.02.2022 21:30 12,9 C 11,7 C 9,4 C 96 % 993,4 hPa 0,0 l/m 0 min 2 min 0 W/m 51,5 km/h (7 Bft) 97,87 %
16.02.2022 21:32 12,9 C 11,7 C 9,4 C 96 % 993,4 hPa 0,0 l/m 0 min 2 min 0 W/m 41,8 km/h (6 Bft) 100,00 %
16.02.2022 21:34 12,9 C 11,7 C 9,4 C 96 % 993,4 hPa 0,0 l/m 0 min 2 min 0 W/m 41,8 km/h (6 Bft) 100,00 %
16.02.2022 21:36 13,0 C 11,7 C 9,4 C 96 % 993,3 hPa 0,0 l/m 0 min 2 min 0 W/m 45,1 km/h (6 Bft) 100,00 %
16.02.2022 21:38 13,0 C 11,7 C 9,4 C 96 % 993,4 hPa 0,0 l/m 0 min 2 min 0 W/m 35,4 km/h (5 Bft) 97,87 %
16.02.2022 21:40 13,0 C 11,7 C 9,4 C 96 % 993,2 hPa 0,0 l/m 0 min 2 min 0 W/m 35,4 km/h (5 Bft) 97,87 %
16.02.2022 21:42 13,0 C 11,7 C 9,4 C 96 % 993,4 hPa 0,2 l/m 0 min 2 min 0 W/m 25,7 km/h (4 Bft) 97,87 %
16.02.2022 21:44 13,0 C 11,7 C 9,4 C 96 % 993,4 hPa 0,0 l/m 0 min 2 min 0 W/m 38,6 km/h (5 Bft) 97,83 %
16.02.2022 21:46 13,0 C 11,7 C 9,4 C 96 % 993,4 hPa 0,0 l/m 0 min 2 min 0 W/m 38,6 km/h (5 Bft) 97,87 %
16.02.2022 21:48 13,0 C 11,7 C 9,4 C 96 % 993,4 hPa 0,0 l/m 0 min 2 min 0 W/m 29,0 km/h (5 Bft) 97,87 %
16.02.2022 21:50 13,0 C 11,7 C 9,4 C 95 % 993,4 hPa 0,0 l/m 0 min 2 min 0 W/m 35,4 km/h (5 Bft) 97,87 %
16.02.2022 21:52 13,1 C 11,7 C 9,4 C 95 % 993,5 hPa 0,0 l/m 0 min 2 min 0 W/m 51,5 km/h (7 Bft) 97,87 %
16.02.2022 21:54 13,1 C 11,7 C 9,4 C 95 % 993,4 hPa 0,0 l/m 0 min 2 min 0 W/m 38,6 km/h (5 Bft) 97,87 %
16.02.2022 21:56 13,1 C 11,7 C 9,4 C 95 % 993,6 hPa 0,0 l/m 0 min 2 min 0 W/m 29,0 km/h (5 Bft) 97,83 %
16.02.2022 21:58 13,1 C 11,7 C 9,4 C 95 % 993,4 hPa 0,0 l/m 0 min 0 min 0 W/m 25,7 km/h (4 Bft) 97,87 %
16.02.2022 22:00 13,1 C 11,7 C 9,4 C 95 % 993,5 hPa 0,0 l/m 0 min 0 min 0 W/m 38,6 km/h (5 Bft) 97,87 %
16.02.2022 22:02 13,1 C 12,2 C 9,4 C 95 % 993,4 hPa 0,0 l/m 0 min 2 min 0 W/m 29,0 km/h (5 Bft) 95,74 %
16.02.2022 22:04 13,1 C 12,2 C 9,4 C 95 % 993,6 hPa 0,0 l/m 0 min 2 min 0 W/m 38,6 km/h (5 Bft) 95,74 %
16.02.2022 22:06 13,1 C 12,2 C 9,4 C 95 % 993,5 hPa 0,0 l/m 0 min 2 min 0 W/m 51,5 km/h (7 Bft) 97,87 %
16.02.2022 22:08 13,1 C 11,7 C 9,4 C 95 % 993,6 hPa 0,0 l/m 0 min 2 min 0 W/m 35,4 km/h (5 Bft) 97,83 %
16.02.2022 22:10 13,1 C 11,7 C 9,4 C 95 % 993,4 hPa 0,0 l/m 0 min 2 min 0 W/m 48,3 km/h (6 Bft) 95,74 %
16.02.2022 22:12 13,1 C 11,7 C 9,4 C 95 % 993,7 hPa 0,0 l/m 0 min 2 min 0 W/m 41,8 km/h (6 Bft) 95,74 %
16.02.2022 22:14 13,1 C 11,7 C 9,4 C 95 % 993,7 hPa 0,0 l/m 0 min 2 min 0 W/m 29,0 km/h (5 Bft) 100,00 %
16.02.2022 22:16 13,1 C 11,7 C 9,4 C 95 % 993,5 hPa 0,0 l/m 0 min 2 min 0 W/m 64,4 km/h (8 Bft) 100,00 %
16.02.2022 22:18 13,1 C 11,7 C 9,4 C 96 % 993,7 hPa 0,0 l/m 0 min 2 min 0 W/m 35,4 km/h (5 Bft) 100,00 %
16.02.2022 22:20 13,0 C 11,7 C 9,4 C 96 % 993,7 hPa 0,0 l/m 0 min 2 min 0 W/m 32,2 km/h (5 Bft) 100,00 %
16.02.2022 22:22 13,0 C 11,7 C 9,4 C 96 % 993,6 hPa 0,0 l/m 0 min 2 min 0 W/m 57,9 km/h (7 Bft) 100,00 %
16.02.2022 22:24 13,0 C 11,7 C 9,4 C 96 % 993,5 hPa 0,0 l/m 0 min 2 min 0 W/m 35,4 km/h (5 Bft) 100,00 %
16.02.2022 22:26 13,0 C 11,7 C 9,4 C 96 % 993,8 hPa 0,0 l/m 0 min 2 min 0 W/m 38,6 km/h (5 Bft) 100,00 %
16.02.2022 22:28 13,0 C 11,7 C 9,4 C 96 % 993,6 hPa 0,0 l/m 0 min 2 min 0 W/m 25,7 km/h (4 Bft) 100,00 %
16.02.2022 22:30 13,0 C 11,7 C 9,4 C 96 % 993,4 hPa 0,0 l/m 0 min 2 min 0 W/m 32,2 km/h (5 Bft) 97,87 %
16.02.2022 22:32 13,0 C 11,7 C 9,4 C 96 % 993,6 hPa 0,0 l/m 0 min 2 min 0 W/m 25,7 km/h (4 Bft) 100,00 %
16.02.2022 22:34 12,9 C 11,7 C 9,4 C 96 % 993,8 hPa 0,0 l/m 0 min 2 min 0 W/m 35,4 km/h (5 Bft) 100,00 %
16.02.2022 22:36 12,9 C 11,7 C 9,4 C 96 % 993,8 hPa 0,0 l/m 0 min 2 min 0 W/m 54,7 km/h (7 Bft) 100,00 %
16.02.2022 22:38 12,9 C 11,7 C 9,4 C 96 % 993,6 hPa 0,0 l/m 0 min 2 min 0 W/m 25,7 km/h (4 Bft) 100,00 %
16.02.2022 22:40 12,9 C 11,7 C 9,4 C 96 % 993,7 hPa 0,2 l/m 0 min 2 min 0 W/m 29,0 km/h (5 Bft) 97,87 %
16.02.2022 22:42 12,9 C 11,7 C 9,4 C 96 % 993,5 hPa 0,0 l/m 0 min 2 min 0 W/m 45,1 km/h (6 Bft) 100,00 %
16.02.2022 22:44 12,9 C 11,7 C 9,4 C 96 % 993,7 hPa 0,0 l/m 0 min 2 min 0 W/m 35,4 km/h (5 Bft) 100,00 %
16.02.2022 22:46 12,9 C 11,7 C 9,4 C 96 % 994,0 hPa 0,0 l/m 0 min 2 min 0 W/m 35,4 km/h (5 Bft) 97,87 %
16.02.2022 22:48 12,9 C 11,7 C 9,4 C 96 % 993,6 hPa 0,0 l/m 0 min 2 min 0 W/m 61,2 km/h (7 Bft) 100,00 %
16.02.2022 22:50 12,9 C 11,7 C 9,4 C 96 % 993,7 hPa 0,0 l/m 0 min 2 min 0 W/m 41,8 km/h (6 Bft) 97,87 %
16.02.2022 22:52 12,9 C 11,7 C 9,4 C 96 % 993,8 hPa 0,0 l/m 0 min 2 min 0 W/m 41,8 km/h (6 Bft) 100,00 %
16.02.2022 22:54 12,9 C 11,7 C 9,4 C 96 % 993,7 hPa 0,0 l/m 0 min 2 min 0 W/m 51,5 km/h (7 Bft) 95,74 %
16.02.2022 22:56 12,9 C 11,7 C 9,4 C 96 % 993,6 hPa 0,0 l/m 0 min 2 min 0 W/m 29,0 km/h (5 Bft) 97,87 %
16.02.2022 22:58 12,9 C 11,7 C 9,4 C 96 % 993,6 hPa 0,0 l/m 0 min 2 min 0 W/m 29,0 km/h (5 Bft) 97,87 %
16.02.2022 23:00 12,9 C 11,7 C 9,4 C 96 % 993,7 hPa 0,0 l/m 0 min 2 min 0 W/m 32,2 km/h (5 Bft) 97,83 %
16.02.2022 23:02 12,9 C 11,7 C 9,4 C 96 % 993,7 hPa 0,0 l/m 0 min 2 min 0 W/m 38,6 km/h (5 Bft) 97,87 %
16.02.2022 23:04 12,9 C 11,7 C 9,4 C 96 % 993,7 hPa 0,0 l/m 0 min 2 min 0 W/m 35,4 km/h (5 Bft) 97,87 %
16.02.2022 23:06 12,9 C 11,7 C 9,4 C 96 % 993,6 hPa 0,0 l/m 0 min 2 min 0 W/m 57,9 km/h (7 Bft) 97,87 %
16.02.2022 23:08 12,9 C 11,7 C 9,4 C 96 % 993,8 hPa 0,2 l/m 0 min 2 min 0 W/m 38,6 km/h (5 Bft) 97,87 %
16.02.2022 23:10 12,9 C 11,7 C 9,4 C 96 % 993,5 hPa 0,0 l/m 0 min 2 min 0 W/m 25,7 km/h (4 Bft) 95,74 %
16.02.2022 23:12 12,8 C 11,7 C 9,4 C 96 % 993,6 hPa 0,0 l/m 0 min 2 min 0 W/m 32,2 km/h (5 Bft) 93,48 %
16.02.2022 23:14 12,8 C 11,7 C 9,4 C 96 % 993,6 hPa 0,0 l/m 0 min 2 min 0 W/m 32,2 km/h (5 Bft) 95,74 %
16.02.2022 23:16 12,8 C 11,7 C 9,4 C 96 % 993,6 hPa 0,0 l/m 0 min 2 min 0 W/m 35,4 km/h (5 Bft) 95,74 %
16.02.2022 23:18 12,8 C 11,7 C 9,4 C 96 % 993,6 hPa 0,0 l/m 0 min 2 min 0 W/m 38,6 km/h (5 Bft) 95,74 %
16.02.2022 23:20 12,8 C 11,7 C 9,4 C 96 % 993,7 hPa 0,2 l/m 0 min 2 min 0 W/m 29,0 km/h (5 Bft) 95,74 %
16.02.2022 23:22 12,8 C 11,7 C 9,4 C 96 % 993,7 hPa 0,0 l/m 0 min 2 min 0 W/m 48,3 km/h (6 Bft) 95,74 %
16.02.2022 23:24 12,8 C 11,1 C 9,4 C 96 % 994,0 hPa 0,0 l/m 0 min 2 min 0 W/m 38,6 km/h (5 Bft) 93,48 %
16.02.2022 23:26 12,8 C 11,7 C 9,4 C 96 % 993,9 hPa 0,0 l/m 0 min 2 min 0 W/m 38,6 km/h (5 Bft) 93,62 %
16.02.2022 23:28 12,8 C 11,7 C 9,4 C 96 % 993,8 hPa 0,2 l/m 0 min 2 min 0 W/m 29,0 km/h (5 Bft) 95,74 %
16.02.2022 23:30 12,8 C 11,7 C 9,4 C 96 % 994,0 hPa 0,0 l/m 0 min 2 min 0 W/m 35,4 km/h (5 Bft) 93,62 %
16.02.2022 23:32 12,8 C 11,7 C 9,4 C 96 % 993,7 hPa 0,0 l/m 0 min 2 min 0 W/m 32,2 km/h (5 Bft) 93,62 %
16.02.2022 23:34 12,8 C 11,7 C 9,4 C 96 % 993,8 hPa 0,0 l/m 0 min 2 min 0 W/m 25,7 km/h (4 Bft) 95,74 %
16.02.2022 23:36 12,7 C 11,7 C 9,4 C 96 % 993,8 hPa 0,0 l/m 0 min 2 min 0 W/m 25,7 km/h (4 Bft) 93,48 %
16.02.2022 23:38 12,7 C 11,7 C 9,4 C 96 % 994,2 hPa 0,0 l/m 0 min 2 min 0 W/m 48,3 km/h (6 Bft) 95,74 %
16.02.2022 23:40 12,8 C 11,7 C 9,4 C 95 % 993,9 hPa 0,0 l/m 0 min 2 min 0 W/m 48,3 km/h (6 Bft) 95,74 %
16.02.2022 23:42 12,8 C 11,7 C 9,4 C 95 % 994,2 hPa 0,0 l/m 0 min 2 min 0 W/m 57,9 km/h (7 Bft) 93,62 %
16.02.2022 23:44 12,8 C 11,7 C 9,4 C 95 % 994,2 hPa 0,0 l/m 0 min 0 min 0 W/m 45,1 km/h (6 Bft) 95,74 %
16.02.2022 23:46 12,9 C 11,7 C 9,4 C 95 % 994,1 hPa 0,0 l/m 0 min 2 min 0 W/m 38,6 km/h (5 Bft) 93,62 %
16.02.2022 23:48 12,9 C 11,7 C 9,4 C 94 % 994,2 hPa 0,0 l/m 0 min 2 min 0 W/m 48,3 km/h (6 Bft) 93,48 %
16.02.2022 23:50 12,9 C 11,7 C 9,4 C 94 % 994,1 hPa 0,0 l/m 0 min 2 min 0 W/m 51,5 km/h (7 Bft) 95,74 %
16.02.2022 23:52 12,9 C 11,7 C 9,4 C 94 % 994,2 hPa 0,0 l/m 0 min 2 min 0 W/m 38,6 km/h (5 Bft) 93,62 %
16.02.2022 23:54 12,9 C 11,7 C 9,4 C 94 % 994,3 hPa 0,0 l/m 0 min 2 min 0 W/m 32,2 km/h (5 Bft) 95,74 %
16.02.2022 23:56 12,9 C 11,7 C 9,4 C 94 % 994,1 hPa 0,0 l/m 0 min 0 min 0 W/m 32,2 km/h (5 Bft) 95,74 %
16.02.2022 23:58 12,9 C 11,7 C 9,4 C 94 % 994,2 hPa 0,0 l/m 0 min 0 min 0 W/m 35,4 km/h (5 Bft) 95,74 %
_ Min-Zeit 00:00 00:00 00:00 16:35 21:40 - - - - 12:46 00:36
Minimum _ 7,7 C 6,7 C 3,3 C 85 % 993,2 hPa - - - - 12,9 km/h (3 Bft) 57,45 %
_ Max-Zeit 21:52 13:20 13:20 12:10 00:00 19:30 00:00 17:10 12:12 20:56 00:46
Maximum _ 13,1 C 12,2 C 9,4 C 98 % 1006,1 hPa 0,4 l/m 0 min 5 min 176 W/m 74,0 km/h
S-SW (8 Bft)
100,00 %
Durchschnitt _ 10,7 C 9,8 C 7,0 C 94 % 998,7 hPa #6,0 l/m #0 min. #15:22 h 62 W/m 33,0 km/h (5 Bft) 97,69 %
© 2022 W. Hausmann